W4HSV Weather Reports


time (UTC)temp
C
wind
direction
speed
KPH
gust
KPH
rain 1hr
cm
rain 24hr
cm
rain mn
cm
humidity
%
barometer
mb
20240614130123 25 207 4.8 6.4 0.00 0.00 0.00 80 1015.3
20240614130009 25 190 4.8 6.4 0.00 0.00 0.00 80 1015.4
20240614125937 25 187 3.2 6.4 0.00 0.00 0.00 80 1015.4
20240614125806 25 189 1.6 6.4 0.00 0.00 0.00 80 1015.3
20240614125713 25 168 0.0 6.4 0.00 0.00 0.00 81 1015.4
20240614125601 25 179 1.6 6.4 0.00 0.00 0.00 80 1015.4
20240614125509 25 179 3.2 6.4 0.00 0.00 0.00 80 1015.4
20240614125416 25 179 3.2 8.0 0.00 0.00 0.00 81 1015.3
20240614125308 25 186 3.2 8.0 0.00 0.00 0.00 82 1015.4
20240614125235 25 189 3.2 8.0 0.00 0.00 0.00 81 1015.4
20240614125100 24 198 3.2 8.0 0.00 0.00 0.00 82 1015.4
20240614125008 24 170 3.2 8.0 0.00 0.00 0.00 82 1015.4
20240614124915 24 205 3.2 8.0 0.00 0.00 0.00 83 1015.5
20240614124849 24 199 3.2 8.0 0.00 0.00 0.00 83 1015.5
20240614124603 24 186 3.2 8.0 0.00 0.00 0.00 83 1015.4
20240614124511 24 169 3.2 6.4 0.00 0.00 0.00 83 1015.5
20240614124417 24 200 3.2 6.4 0.00 0.00 0.00 83 1015.4
20240614124303 24 186 4.8 6.4 0.00 0.00 0.00 84 1015.4
20240614124210 23 161 3.2 6.4 0.00 0.00 0.00 85 1015.4
20240614124102 23 214 3.2 4.8 0.00 0.00 0.00 85 1015.5
20240614124010 23 179 3.2 4.8 0.00 0.00 0.00 86 1015.4
20240614123917 23 218 1.6 4.8 0.00 0.00 0.00 85 1015.4
20240614123805 23 226 3.2 4.8 0.00 0.00 0.00 86 1015.3
20240614123714 23 180 3.2 4.8 0.00 0.00 0.00 86 1015.4
20240614123605 23 182 1.6 4.8 0.00 0.00 0.00 86 1015.4
20240614123513 23 194 1.6 4.8 0.00 0.00 0.00 86 1015.3
20240614123351 23 213 0.0 1.6 0.00 0.00 0.00 86 1015.3
20240614123108 23 348 0.0 1.6 0.00 0.00 0.00 86 1015.3
20240614123016 23 348 0.0 1.6 0.00 0.00 0.00 87 1015.5
20240614122922 23 348 0.0 3.2 0.00 0.00 0.00 87 1015.4
20240614122807 23 348 0.0 3.2 0.00 0.00 0.00 87 1015.5
20240614122717 23 348 0.0 3.2 0.00 0.00 0.00 87 1015.4
20240614122604 23 348 0.0 6.4 0.00 0.00 0.00 88 1015.3
20240614122516 22 348 0.0 6.4 0.00 0.00 0.00 89 1015.5
20240614122403 22 348 0.0 6.4 0.00 0.00 0.00 89 1015.5
20240614122310 22 348 0.0 6.4 0.00 0.00 0.00 89 1015.5
20240614122217 22 348 1.6 6.4 0.00 0.00 0.00 89 1015.6
20240614122124 22 348 3.2 6.4 0.00 0.00 0.00 89 1015.8
20240614122010 22 344 3.2 6.4 0.00 0.00 0.00 89 1015.9
20240614121922 22 340 3.2 6.4 0.00 0.00 0.00 89 1016.0
20240614121852 22 312 4.8 6.4 0.00 0.00 0.00 89 1016.0
20240614121604 22 299 4.8 6.4 0.00 0.00 0.00 89 1015.9
20240614121513 22 301 3.2 6.4 0.00 0.00 0.00 89 1015.8
20240614121439 22 323 1.6 6.4 0.00 0.00 0.00 89 1015.9
20240614121309 22 308 1.6 6.4 0.00 0.00 0.00 89 1015.7
20240614121216 22 308 1.6 6.4 0.00 0.00 0.00 89 1015.9
20240614121101 22 308 3.2 6.4 0.00 0.00 0.00 89 1015.7
20240614121028 22 323 3.2 6.4 0.00 0.00 0.00 89 1015.7
20240614120916 22 331 4.8 6.4 0.00 0.00 0.00 89 1015.8
20240614120823 22 340 3.2 6.4 0.00 0.00 0.00 89 1015.7
20240614120730 22 333 3.2 6.4 0.00 0.00 0.00 89 1015.8
20240614120600 22 336 4.8 6.4 0.00 0.00 0.00 90 1015.7
20240614120508 22 355 4.8 6.4 0.00 0.00 0.00 90 1015.7
20240614120415 22 336 3.2 6.4 0.00 0.00 0.00 90 1015.7
20240614120345 22 338 3.2 4.8 0.00 0.00 0.00 90 1015.7
20240614120102 22 24 3.2 4.8 0.00 0.00 0.00 90 1015.6
20240614120009 22 24 1.6 4.8 0.00 0.00 0.00 90 1015.5
20240614115938 22 24 1.6 3.2 0.00 0.00 0.00 90 1015.5
20240614115804 22 24 1.6 3.2 0.00 0.00 0.00 90 1015.5
20240614115712 22 24 1.6 1.6 0.00 0.00 0.00 90 1015.5
20240614115559 22 24 0.0 1.6 0.00 0.00 0.00 90 1015.4
20240614115532 22 24 0.0 1.6 0.00 0.00 0.00 90 1015.6
20240614115417 22 24 1.6 1.6 0.00 0.00 0.00 90 1015.5
20240614115306 22 24 0.0 1.6 0.00 0.00 0.00 90 1015.5
20240614115212 22 24 0.0 1.6 0.00 0.00 0.00 90 1015.5
20240614115100 22 24 0.0 1.6 0.00 0.00 0.00 90 1015.5
20240614115027 22 24 0.0 3.2 0.00 0.00 0.00 90 1015.5
20240614114848 22 24 0.0 3.2 0.00 0.00 0.00 90 1015.4
20240614114601 22 24 0.0 3.2 0.00 0.00 0.00 90 1015.4
20240614114508 22 24 0.0 3.2 0.00 0.00 0.00 90 1015.4
20240614114401 22 24 1.6 3.2 0.00 0.00 0.00 90 1015.5
20240614114309 22 24 1.6 3.2 0.00 0.00 0.00 90 1015.4
20240614114215 21 24 1.6 3.2 0.00 0.00 0.00 90 1015.5
20240614114122 21 24 3.2 3.2 0.00 0.00 0.00 90 1015.4
20240614114028 21 24 1.6 3.2 0.00 0.00 0.00 90 1015.4
20240614113915 21 24 1.6 3.2 0.00 0.00 0.00 90 1015.3
20240614113801 21 24 0.0 3.2 0.00 0.00 0.00 90 1015.3
20240614113713 21 24 0.0 3.2 0.00 0.00 0.00 90 1015.3
20240614113600 21 24 0.0 3.2 0.00 0.00 0.00 90 1015.3
20240614113529 21 24 0.0 3.2 0.00 0.00 0.00 90 1015.3
20240614113457 21 24 0.0 3.2 0.00 0.00 0.00 89 1015.3
20240614113345 21 24 0.0 4.8 0.00 0.00 0.00 89 1015.2
20240614113101 21 24 1.6 4.8 0.00 0.00 0.00 89 1015.1
20240614113008 21 24 3.2 4.8 0.00 0.00 0.00 89 1015.1
20240614112916 21 24 3.2 4.8 0.00 0.00 0.00 89 1015.1
20240614112803 21 24 3.2 4.8 0.00 0.00 0.00 89 1015.1
20240614112709 21 24 3.2 4.8 0.00 0.00 0.00 89 1015.2
20240614112616 21 24 3.2 4.8 0.00 0.00 0.00 89 1015.2
20240614112506 21 24 3.2 4.8 0.00 0.00 0.00 89 1015.2
20240614112412 21 24 3.2 4.8 0.00 0.00 0.00 89 1015.1
20240614112318 21 24 3.2 4.8 0.00 0.00 0.00 89 1015.2
20240614112205 21 24 3.2 4.8 0.00 0.00 0.00 89 1015.2
20240614112113 21 30 1.6 4.8 0.00 0.00 0.00 89 1015.1
20240614112001 21 30 0.0 1.6 0.00 0.00 0.00 89 1015.0
20240614111913 21 38 0.0 0.0 0.00 0.00 0.00 89 1015.0
20240614111843 21 38 0.0 0.0 0.00 0.00 0.00 89 1015.0
20240614111617 21 66 0.0 0.0 0.00 0.00 0.00 89 1015.0
20240614111505 21 66 0.0 0.0 0.00 0.00 0.00 89 1014.9
20240614111417 21 66 0.0 0.0 0.00 0.00 0.00 89 1014.9
20240614111304 21 120 0.0 0.0 0.00 0.00 0.00 89 1014.9
20240614111210 21 120 0.0 0.0 0.00 0.00 0.00 89 1014.8
20240614111118 21 120 0.0 0.0 0.00 0.00 0.00 89 1014.8
20240614111004 21 120 0.0 0.0 0.00 0.00 0.00 89 1014.8
20240614110912 21 120 0.0 0.0 0.00 0.00 0.00 89 1014.8
20240614110804 21 120 0.0 0.0 0.00 0.00 0.00 89 1014.8
20240614110711 21 120 0.0 0.0 0.00 0.00 0.00 89 1014.8
20240614110617 21 120 0.0 0.0 0.00 0.00 0.00 89 1014.8
20240614110503 21 120 0.0 0.0 0.00 0.00 0.00 89 1014.8
20240614110431 21 120 0.0 0.0 0.00 0.00 0.00 89 1014.8
20240614110343 21 120 0.0 0.0 0.00 0.00 0.00 89 1014.8
20240614110117 21 120 0.0 0.0 0.00 0.00 0.00 89 1014.7
20240614110002 21 120 0.0 1.6 0.00 0.00 0.00 89 1014.7
20240614105909 21 120 0.0 3.2 0.00 0.00 0.00 89 1014.6
20240614105816 21 120 0.0 3.2 0.00 0.00 0.00 89 1014.7
20240614105706 21 120 0.0 3.2 0.00 0.00 0.00 89 1014.7
20240614105614 21 120 0.0 3.2 0.00 0.00 0.00 89 1014.6
20240614105521 21 120 0.0 3.2 0.00 0.00 0.00 89 1014.7
20240614105407 21 120 0.0 3.2 0.00 0.00 0.00 89 1014.6
20240614105315 21 120 0.0 3.2 0.00 0.00 0.00 89 1014.7
20240614105201 21 94 1.6 3.2 0.00 0.00 0.00 89 1014.5
20240614105113 21 94 1.6 3.2 0.00 0.00 0.00 89 1014.5
20240614105000 21 94 1.6 3.2 0.00 0.00 0.00 89 1014.5
20240614104929 21 94 1.6 3.2 0.00 0.00 0.00 89 1014.5
20240614104837 21 94 1.6 3.2 0.00 0.00 0.00 89 1014.5
20240614104610 21 94 1.6 3.2 0.00 0.00 0.00 89 1014.5
20240614104501 21 84 1.6 3.2 0.00 0.00 0.00 89 1014.5
20240614104408 21 84 0.0 1.6 0.00 0.00 0.00 89 1014.4
20240614104336 21 84 0.0 1.6 0.00 0.00 0.00 89 1014.5
20240614104222 21 84 0.0 1.6 0.00 0.00 0.00 89 1014.5
20240614104128 21 84 0.0 1.6 0.00 0.00 0.00 89 1014.5
20240614104013 21 84 0.0 1.6 0.00 0.00 0.00 89 1014.7
20240614103940 21 84 0.0 1.6 0.00 0.00 0.00 89 1014.6
20240614103811 21 84 0.0 4.8 0.00 0.00 0.00 89 1014.7
20240614103659 21 84 0.0 4.8 0.00 0.00 0.00 89 1014.7
20240614103607 21 84 0.0 4.8 0.00 0.00 0.00 89 1014.6
20240614103534 21 84 0.0 4.8 0.00 0.00 0.00 89 1014.6
20240614103401 21 84 0.0 6.4 0.00 0.00 0.00 89 1014.7
20240614103336 21 84 0.0 6.4 0.00 0.00 0.00 89 1014.7
20240614103110 21 73 1.6 6.4 0.00 0.00 0.00 89 1014.5
20240614103017 21 73 1.6 6.4 0.00 0.00 0.00 89 1014.5
20240614102904 21 105 3.2 6.4 0.00 0.00 0.00 89 1014.4
20240614102811 21 118 3.2 6.4 0.00 0.00 0.00 89 1014.3
20240614102723 21 107 3.2 6.4 0.00 0.00 0.00 89 1014.3
20240614102631 21 115 3.2 6.4 0.00 0.00 0.00 89 1014.3
20240614102517 21 116 3.2 6.4 0.00 0.00 0.00 89 1014.3
20240614102402 21 115 3.2 6.4 0.00 0.00 0.00 89 1014.3
20240614102311 21 115 3.2 6.4 0.00 0.00 0.00 89 1014.3
20240614102219 21 119 3.2 9.7 0.00 0.00 0.00 89 1014.4
20240614102110 21 109 3.2 9.7 0.00 0.00 0.00 89 1014.4
20240614102018 21 132 3.2 9.7 0.00 0.00 0.00 89 1014.4
20240614101906 21 132 4.8 9.7 0.00 0.00 0.00 89 1014.3
20240614101834 21 130 4.8 9.7 0.00 0.00 0.00 89 1014.3
20240614101608 21 115 4.8 9.7 0.00 0.00 0.00 89 1014.3
20240614101520 21 130 4.8 9.7 0.00 0.00 0.00 89 1014.3
20240614101404 21 127 4.8 9.7 0.00 0.00 0.00 89 1014.3
20240614101332 21 123 4.8 8.0 0.00 0.00 0.00 89 1014.3
20240614101218 21 116 4.8 6.4 0.00 0.00 0.00 90 1014.3
20240614101104 21 150 4.8 6.4 0.00 0.00 0.00 90 1014.4
20240614101012 21 140 3.2 6.4 0.00 0.00 0.00 90 1014.5
20240614100903 21 131 3.2 4.8 0.00 0.00 0.00 90 1014.4
20240614100811 21 131 3.2 4.8 0.00 0.00 0.00 90 1014.5
20240614100718 21 131 3.2 4.8 0.00 0.00 0.00 90 1014.5
20240614100626 21 131 3.2 4.8 0.00 0.00 0.00 90 1014.4
20240614100512 21 127 3.2 4.8 0.00 0.00 0.00 90 1014.4
20240614100400 21 127 3.2 4.8 0.00 0.00 0.00 90 1014.5
20240614100335 21 128 3.2 4.8 0.00 0.00 0.00 90 1014.5
20240614100107 21 123 3.2 4.8 0.00 0.00 0.00 90 1014.4
20240614100015 21 117 1.6 3.2 0.00 0.00 0.00 90 1014.4
20240614095903 21 112 1.6 3.2 0.00 0.00 0.00 90 1014.5
20240614095815 21 112 1.6 3.2 0.00 0.00 0.00 91 1014.6
20240614095703 21 112 1.6 3.2 0.00 0.00 0.00 91 1014.6
20240614095609 21 112 3.2 3.2 0.00 0.00 0.00 91 1014.6
20240614095517 21 112 1.6 3.2 0.00 0.00 0.00 91 1014.5
20240614095424 21 112 1.6 3.2 0.00 0.00 0.00 91 1014.6
20240614095331 21 112 1.6 3.2 0.00 0.00 0.00 91 1014.5
20240614095216 21 355 0.0 1.6 0.00 0.00 0.00 91 1014.4
20240614095108 21 355 0.0 1.6 0.00 0.00 0.00 91 1014.5
20240614095016 21 355 0.0 1.6 0.00 0.00 0.00 90 1014.5
20240614094943 21 355 0.0 1.6 0.00 0.00 0.00 90 1014.5
20240614094852 21 355 0.0 0.0 0.00 0.00 0.00 90 1014.5
20240614094605 21 355 0.0 1.6 0.00 0.00 0.00 90 1014.5
20240614094516 21 355 0.0 1.6 0.00 0.00 0.00 90 1014.7
20240614094402 21 355 0.0 1.6 0.00 0.00 0.00 90 1014.7
20240614094309 21 355 0.0 1.6 0.00 0.00 0.00 90 1014.6
20240614094216 21 355 0.0 1.6 0.00 0.00 0.00 90 1014.6
20240614094103 21 355 0.0 1.6 0.00 0.00 0.00 90 1014.6
20240614094013 21 355 0.0 1.6 0.00 0.00 0.00 90 1014.7
20240614093921 21 355 0.0 3.2 0.00 0.00 0.00 90 1014.6
20240614093808 21 355 0.0 3.2 0.00 0.00 0.00 90 1014.7
20240614093716 21 355 0.0 3.2 0.00 0.00 0.00 89 1014.7
20240614093602 21 355 0.0 3.2 0.00 0.00 0.00 89 1014.6
20240614093509 21 355 0.0 3.2 0.00 0.00 0.00 89 1014.7
20240614093421 21 355 0.0 3.2 0.00 0.00 0.00 89 1014.8
20240614093350 21 355 1.6 3.2 0.00 0.00 0.00 89 1014.8
20240614093104 21 355 1.6 3.2 0.00 0.00 0.00 90 1014.7
20240614093012 21 355 0.0 3.2 0.00 0.00 0.00 90 1014.8
20240614092904 21 355 0.0 3.2 0.00 0.00 0.00 89 1014.8
20240614092811 21 355 1.6 4.8 0.00 0.00 0.00 89 1014.7
20240614092718 21 355 1.6 4.8 0.00 0.00 0.00 89 1014.8
20240614092606 21 355 1.6 4.8 0.00 0.00 0.00 89 1014.7
20240614092514 21 355 1.6 4.8 0.00 0.00 0.00 89 1014.9
20240614092421 21 355 1.6 4.8 0.00 0.00 0.00 89 1014.9
20240614092310 21 355 1.6 4.8 0.00 0.00 0.00 89 1014.9
20240614092216 21 355 1.6 4.8 0.00 0.00 0.00 89 1014.8
20240614092124 21 355 1.6 4.8 0.00 0.00 0.00 89 1014.8
20240614092010 21 355 1.6 4.8 0.00 0.00 0.00 89 1014.8
20240614091850 21 355 1.6 4.8 0.00 0.00 0.00 89 1014.8
20240614091604 21 355 3.2 4.8 0.00 0.00 0.00 89 1014.8
20240614091531 21 355 3.2 4.8 0.00 0.00 0.00 89 1014.8
20240614091418 21 355 3.2 4.8 0.00 0.00 0.00 89 1014.8
20240614091305 21 355 3.2 4.8 0.00 0.00 0.00 89 1014.9
20240614091234 21 355 3.2 4.8 0.00 0.00 0.00 89 1014.9
20240614091001 21 355 3.2 4.8 0.00 0.00 0.00 89 1014.9
20240614090909 21 355 3.2 4.8 0.00 0.00 0.00 89 1014.8
20240614090815 21 355 3.2 4.8 0.00 0.00 0.00 89 1014.7
20240614090702 21 355 1.6 3.2 0.00 0.00 0.00 89 1014.6
20240614090610 21 355 1.6 3.2 0.00 0.00 0.00 89 1014.6
20240614090516 21 355 0.0 3.2 0.00 0.00 0.00 88 1014.5
20240614090406 21 355 1.6 3.2 0.00 0.00 0.00 88 1014.4
20240614090337 21 355 1.6 3.2 0.00 0.00 0.00 88 1014.4
20240614090110 22 355 1.6 3.2 0.00 0.00 0.00 88 1014.4
20240614090017 22 355 1.6 3.2 0.00 0.00 0.00 88 1014.4
20240614085925 22 355 1.6 3.2 0.00 0.00 0.00 88 1014.4
20240614085814 22 355 1.6 3.2 0.00 0.00 0.00 88 1014.5
20240614085722 22 355 1.6 3.2 0.00 0.00 0.00 89 1014.4
20240614085608 22 355 1.6 3.2 0.00 0.00 0.00 89 1014.4
20240614085517 22 355 0.0 3.2 0.00 0.00 0.00 88 1014.4
20240614085425 22 355 1.6 3.2 0.00 0.00 0.00 88 1014.4
20240614085311 22 355 1.6 3.2 0.00 0.00 0.00 88 1014.4
20240614085201 22 355 1.6 3.2 0.00 0.00 0.00 88 1014.4
20240614085108 22 355 1.6 3.2 0.00 0.00 0.00 88 1014.3
20240614085016 22 355 1.6 3.2 0.00 0.00 0.00 88 1014.4
20240614084904 22 355 1.6 3.2 0.00 0.00 0.00 88 1014.3
20240614084840 22 355 1.6 3.2 0.00 0.00 0.00 88 1014.3
20240614084613 22 355 1.6 3.2 0.00 0.00 0.00 87 1014.2
20240614084500 22 355 1.6 3.2 0.00 0.00 0.00 87 1014.1
20240614084406 22 355 1.6 3.2 0.00 0.00 0.00 88 1014.1
20240614084315 22 355 1.6 3.2 0.00 0.00 0.00 88 1014.0
20240614084203 22 355 1.6 3.2 0.00 0.00 0.00 88 1014.0
20240614084135 22 355 1.6 3.2 0.00 0.00 0.00 88 1014.0
20240614084001 22 355 0.0 1.6 0.00 0.00 0.00 88 1013.9
20240614083910 22 355 0.0 1.6 0.00 0.00 0.00 88 1014.0
20240614083837 22 355 0.0 1.6 0.00 0.00 0.00 88 1014.0
20240614083704 22 355 0.0 1.6 0.00 0.00 0.00 88 1014.0
20240614083611 22 355 0.0 1.6 0.00 0.00 0.00 88 1014.0
20240614083522 22 355 0.0 1.6 0.00 0.00 0.00 88 1014.1
20240614083409 22 355 0.0 1.6 0.00 0.00 0.00 88 1014.0
20240614083339 22 355 0.0 0.0 0.00 0.00 0.00 88 1014.0
20240614083113 22 355 0.0 0.0 0.00 0.00 0.00 88 1014.2
20240614083000 22 355 0.0 0.0 0.00 0.00 0.00 88 1014.2
20240614082911 22 355 0.0 1.6 0.00 0.00 0.00 88 1014.2
20240614082759 22 355 0.0 3.2 0.00 0.00 0.00 88 1014.3
20240614082706 22 355 0.0 3.2 0.00 0.00 0.00 88 1014.3
20240614082613 22 355 0.0 3.2 0.00 0.00 0.00 88 1014.3
20240614082501 22 355 0.0 3.2 0.00 0.00 0.00 88 1014.4
20240614082412 22 355 0.0 4.8 0.00 0.00 0.00 88 1014.4
20240614082339 22 355 0.0 4.8 0.00 0.00 0.00 87 1014.4
20240614082205 22 355 0.0 4.8 0.00 0.00 0.00 87 1014.4
20240614082111 22 355 1.6 4.8 0.00 0.00 0.00 87 1014.5
20240614081959 22 355 3.2 4.8 0.00 0.00 0.00 87 1014.5
20240614081905 22 355 3.2 4.8 0.00 0.00 0.00 87 1014.5
20240614081842 22 355 3.2 4.8 0.00 0.00 0.00 86 1014.5
20240614081635 22 355 3.2 4.8 0.00 0.00 0.00 86 1014.5
20240614081502 22 355 3.2 4.8 0.00 0.00 0.00 86 1014.3
20240614081408 22 355 3.2 4.8 0.00 0.00 0.00 86 1014.3
20240614081315 22 355 3.2 4.8 0.00 0.00 0.00 86 1014.2
20240614081206 22 355 3.2 3.2 0.00 0.00 0.00 86 1014.2
20240614081113 22 355 3.2 3.2 0.00 0.00 0.00 86 1014.1
20240614081001 22 355 1.6 3.2 0.00 0.00 0.00 86 1014.1
20240614080929 22 355 0.0 3.2 0.00 0.00 0.00 86 1014.0
20240614080815 22 355 0.0 1.6 0.00 0.00 0.00 86 1014.0
20240614080701 22 355 0.0 1.6 0.00 0.00 0.00 86 1013.9
20240614080613 22 355 0.0 1.6 0.00 0.00 0.00 86 1014.0
20240614080501 22 355 0.0 1.6 0.00 0.00 0.00 86 1013.9
20240614080408 22 355 0.0 3.2 0.00 0.00 0.00 86 1013.9
20240614080339 22 355 0.0 3.2 0.00 0.00 0.00 87 1013.9
20240614080116 22 355 0.0 3.2 0.00 0.00 0.00 87 1014.0
20240614080004 22 355 0.0 3.2 0.00 0.00 0.00 87 1014.0
20240614075910 22 355 0.0 3.2 0.00 0.00 0.00 87 1013.9
20240614075818 22 355 0.0 4.8 0.00 0.00 0.00 87 1013.9
20240614075724 22 355 0.0 4.8 0.00 0.00 0.00 87 1014.0
20240614075612 22 355 1.6 4.8 0.00 0.00 0.00 87 1013.9
20240614075503 22 355 1.6 4.8 0.00 0.00 0.00 87 1013.9
20240614075432 22 355 1.6 4.8 0.00 0.00 0.00 87 1014.0
20240614075339 22 355 1.6 4.8 0.00 0.00 0.00 86 1014.0
20240614075206 22 355 3.2 4.8 0.00 0.00 0.00 86 1014.0
20240614075114 22 355 3.2 4.8 0.00 0.00 0.00 86 1013.9
20240614075039 22 355 3.2 4.8 0.00 0.00 0.00 86 1014.0
20240614074905 22 360 1.6 3.2 0.00 0.00 0.00 86 1013.9
20240614074840 22 15 1.6 3.2 0.00 0.00 0.00 86 1013.9
20240614074614 22 15 1.6 3.2 0.00 0.00 0.00 86 1013.9
20240614074501 22 15 1.6 3.2 0.00 0.00 0.00 86 1014.0
20240614074409 22 15 1.6 3.2 0.00 0.00 0.00 86 1014.1
20240614074335 22 15 1.6 3.2 0.00 0.00 0.00 85 1014.0
20240614074206 22 15 1.6 3.2 0.00 0.00 0.00 85 1014.1
20240614074113 22 15 1.6 3.2 0.00 0.00 0.00 86 1014.1
20240614074000 22 15 1.6 3.2 0.00 0.00 0.00 86 1014.0
20240614073907 22 15 1.6 3.2 0.00 0.00 0.00 86 1014.2
20240614073815 22 15 0.0 3.2 0.00 0.00 0.00 86 1014.1
20240614073726 22 15 0.0 3.2 0.00 0.00 0.00 85 1014.1
20240614073613 22 15 0.0 3.2 0.00 0.00 0.00 85 1014.0
20240614073500 22 15 0.0 3.2 0.00 0.00 0.00 85 1014.0
20240614073409 22 15 0.0 3.2 0.00 0.00 0.00 85 1014.0
20240614073339 22 15 0.0 3.2 0.00 0.00 0.00 85 1014.0
20240614073136 22 15 0.0 3.2 0.00 0.00 0.00 85 1014.1
20240614073002 22 15 1.6 3.2 0.00 0.00 0.00 84 1014.1
20240614072908 22 15 1.6 3.2 0.00 0.00 0.00 85 1014.1
20240614072815 22 15 1.6 3.2 0.00 0.00 0.00 85 1014.1
20240614072702 22 15 1.6 3.2 0.00 0.00 0.00 85 1014.1
20240614072610 22 15 1.6 3.2 0.00 0.00 0.00 85 1014.1
20240614072501 22 15 1.6 3.2 0.00 0.00 0.00 85 1014.1
20240614072409 22 15 1.6 3.2 0.00 0.00 0.00 85 1014.1
20240614072316 22 15 1.6 3.2 0.00 0.00 0.00 85 1014.2
20240614072223 22 15 3.2 3.2 0.00 0.00 0.00 85 1014.2
20240614072109 22 15 3.2 3.2 0.00 0.00 0.00 85 1014.1
20240614072000 22 15 3.2 3.2 0.00 0.00 0.00 85 1014.1
20240614071929 22 15 3.2 3.2 0.00 0.00 0.00 85 1014.1
20240614071859 22 15 3.2 3.2 0.00 0.00 0.00 85 1014.1
20240614071610 22 15 1.6 3.2 0.00 0.00 0.00 85 1014.2
20240614071538 22 15 1.6 3.2 0.00 0.00 0.00 85 1014.1
20240614071405 22 15 0.0 4.8 0.00 0.00 0.00 85 1014.1
20240614071316 22 15 0.0 4.8 0.00 0.00 0.00 85 1014.1
20240614071203 22 15 0.0 4.8 0.00 0.00 0.00 85 1014.1
20240614071111 22 15 0.0 4.8 0.00 0.00 0.00 85 1014.0
20240614070959 22 15 0.0 4.8 0.00 0.00 0.00 85 1014.0
20240614070906 22 15 0.0 4.8 0.00 0.00 0.00 85 1014.0
20240614070817 22 15 0.0 4.8 0.00 0.00 0.00 85 1013.9
20240614070725 22 15 0.0 4.8 0.00 0.00 0.00 86 1013.9
20240614070631 22 15 1.6 4.8 0.00 0.00 0.00 86 1013.9
20240614070517 22 15 1.6 4.8 0.00 0.00 0.00 86 1014.1
20240614070405 22 335 1.6 4.8 0.00 0.00 0.00 86 1014.0
20240614070340 22 335 3.2 4.8 0.00 0.00 0.00 86 1014.0
20240614070113 22 335 3.2 4.8 0.00 0.00 0.00 86 1014.2
20240614070000 22 347 3.2 4.8 0.00 0.00 0.00 86 1014.3
20240614065907 22 336 3.2 4.8 0.00 0.00 0.00 85 1014.2
20240614065815 22 325 3.2 4.8 0.00 0.00 0.00 85 1014.3
20240614065703 22 339 3.2 4.8 0.00 0.00 0.00 85 1014.3
20240614065611 22 337 3.2 4.8 0.00 0.00 0.00 85 1014.3
20240614065459 22 347 3.2 4.8 0.00 0.00 0.00 85 1014.4
20240614065406 22 347 3.2 4.8 0.00 0.00 0.00 85 1014.3
20240614065313 22 347 3.2 4.8 0.00 0.00 0.00 85 1014.3
20240614065200 22 347 3.2 4.8 0.00 0.00 0.00 85 1014.3
20240614065108 22 347 1.6 4.8 0.00 0.00 0.00 85 1014.3
20240614065020 22 347 3.2 4.8 0.00 0.00 0.00 85 1014.3
20240614064907 22 347 3.2 4.8 0.00 0.00 0.00 85 1014.4
20240614064838 22 347 3.2 4.8 0.00 0.00 0.00 85 1014.4
20240614064630 22 345 3.2 4.8 0.00 0.00 0.00 85 1014.5
20240614064515 22 341 3.2 4.8 0.00 0.00 0.00 85 1014.5
20240614064407 22 347 3.2 4.8 0.00 0.00 0.00 85 1014.5
20240614064313 22 347 3.2 4.8 0.00 0.00 0.00 85 1014.5
20240614064200 23 9 3.2 4.8 0.00 0.00 0.00 85 1014.5
20240614064106 23 9 3.2 4.8 0.00 0.00 0.00 85 1014.5
20240614064013 23 9 3.2 4.8 0.00 0.00 0.00 85 1014.4
20240614063902 23 9 1.6 4.8 0.00 0.00 0.00 85 1014.4
20240614063813 23 9 1.6 4.8 0.00 0.00 0.00 85 1014.4
20240614063700 23 9 1.6 4.8 0.00 0.00 0.00 85 1014.4
20240614063608 23 9 3.2 4.8 0.00 0.00 0.00 85 1014.4
20240614063517 23 9 3.2 4.8 0.00 0.00 0.00 85 1014.4
20240614063405 23 9 3.2 4.8 0.00 0.00 0.00 85 1014.4
20240614063339 23 9 3.2 4.8 0.00 0.00 0.00 85 1014.4
20240614063112 23 9 3.2 4.8 0.00 0.00 0.00 85 1014.4
20240614063001 23 9 3.2 4.8 0.00 0.00 0.00 84 1014.4
20240614062909 23 9 3.2 4.8 0.00 0.00 0.00 84 1014.4
20240614062815 23 9 3.2 4.8 0.00 0.00 0.00 84 1014.4
20240614062705 23 9 3.2 4.8 0.00 0.00 0.00 85 1014.5
20240614062613 23 9 3.2 4.8 0.00 0.00 0.00 84 1014.5
20240614062520 23 9 1.6 4.8 0.00 0.00 0.00 85 1014.4
20240614062407 23 9 3.2 4.8 0.00 0.00 0.00 85 1014.3
20240614062335 23 9 3.2 4.8 0.00 0.00 0.00 84 1014.4
20240614062221 23 9 1.6 4.8 0.00 0.00 0.00 85 1014.3
20240614062110 23 9 1.6 4.8 0.00 0.00 0.00 84 1014.3
20240614062016 23 9 1.6 4.8 0.00 0.00 0.00 84 1014.3
20240614061904 23 9 1.6 4.8 0.00 0.00 0.00 84 1014.2
20240614061836 23 9 1.6 4.8 0.00 0.00 0.00 85 1014.2
20240614061631 23 9 3.2 4.8 0.00 0.00 0.00 84 1014.2
20240614061459 23 9 3.2 4.8 0.00 0.00 0.00 84 1014.3
20240614061428 23 9 1.6 4.8 0.00 0.00 0.00 84 1014.2
20240614061314 23 9 1.6 4.8 0.00 0.00 0.00 84 1014.2
20240614061201 23 9 3.2 4.8 0.00 0.00 0.00 84 1014.2
20240614061108 23 9 3.2 4.8 0.00 0.00 0.00 84 1014.2
20240614061015 23 9 3.2 4.8 0.00 0.00 0.00 84 1014.2
20240614060905 23 9 3.2 4.8 0.00 0.00 0.00 84 1014.2
20240614060834 23 9 1.6 4.8 0.00 0.00 0.00 84 1014.3
20240614060700 23 9 1.6 4.8 0.00 0.00 0.00 84 1014.2
20240614060609 23 9 3.2 4.8 0.00 0.00 0.00 84 1014.1
20240614060515 23 9 3.2 4.8 0.00 0.00 0.00 84 1014.1
20240614060402 23 9 1.6 3.2 0.00 0.00 0.00 83 1014.0
20240614060336 23 9 0.0 3.2 0.00 0.00 0.00 83 1014.0
20240614060108 23 9 0.0 3.2 0.00 0.00 0.00 83 1014.0
20240614060016 23 9 0.0 3.2 0.00 0.00 0.00 83 1014.0
20240614055901 23 9 1.6 3.2 0.00 0.00 0.00 83 1014.0
20240614055813 23 9 1.6 3.2 0.00 0.00 0.00 83 1014.0
20240614055700 23 9 1.6 3.2 0.00 0.00 0.00 83 1014.0
20240614055606 23 9 1.6 3.2 0.00 0.00 0.00 83 1014.0
20240614055514 23 9 1.6 3.2 0.00 0.00 0.00 83 1014.0
20240614055401 23 9 1.6 3.2 0.00 0.00 0.00 83 1014.1
20240614055309 23 9 0.0 3.2 0.00 0.00 0.00 83 1014.0
20240614055159 23 9 0.0 3.2 0.00 0.00 0.00 83 1014.0
20240614055105 23 9 0.0 3.2 0.00 0.00 0.00 83 1014.0
20240614055011 23 9 0.0 4.8 0.00 0.00 0.00 83 1014.0
20240614054918 23 9 0.0 4.8 0.00 0.00 0.00 82 1013.9
20240614054849 23 9 0.0 4.8 0.00 0.00 0.00 83 1013.9
20240614054605 23 9 1.6 4.8 0.00 0.00 0.00 83 1014.0
20240614054513 23 9 1.6 4.8 0.00 0.00 0.00 83 1014.0
20240614054401 23 9 3.2 4.8 0.00 0.00 0.00 83 1013.9
20240614054309 23 9 3.2 4.8 0.00 0.00 0.00 83 1014.0
20240614054217 23 9 3.2 4.8 0.00 0.00 0.00 83 1014.0
20240614054108 23 9 1.6 4.8 0.00 0.00 0.00 82 1014.0
20240614054015 23 9 1.6 3.2 0.00 0.00 0.00 82 1014.0
20240614053903 23 9 0.0 0.0 0.00 0.00 0.00 82 1013.8
20240614053808 23 9 0.0 0.0 0.00 0.00 0.00 82 1013.8
20240614053715 23 9 0.0 0.0 0.00 0.00 0.00 82 1013.8
20240614053623 23 9 0.0 0.0 0.00 0.00 0.00 82 1013.8
20240614053515 23 9 0.0 0.0 0.00 0.00 0.00 82 1013.8
20240614053403 23 9 0.0 0.0 0.00 0.00 0.00 82 1013.7
20240614053334 23 9 0.0 0.0 0.00 0.00 0.00 82 1013.8
20240614053107 23 9 0.0 0.0 0.00 0.00 0.00 82 1013.8
20240614053000 23 9 0.0 0.0 0.00 0.00 0.00 82 1013.7
20240614052906 23 9 0.0 0.0 0.00 0.00 0.00 82 1013.8
20240614052813 23 9 0.0 0.0 0.00 0.00 0.00 82 1013.8
20240614052700 23 9 0.0 0.0 0.00 0.00 0.00 82 1013.7
20240614052608 23 9 0.0 0.0 0.00 0.00 0.00 82 1013.7
20240614052516 23 9 0.0 0.0 0.00 0.00 0.00 82 1013.7
20240614052407 23 9 0.0 0.0 0.00 0.00 0.00 82 1013.7
20240614052315 23 9 0.0 0.0 0.00 0.00 0.00 82 1013.7
20240614052203 23 9 0.0 0.0 0.00 0.00 0.00 82 1013.8
20240614052111 23 9 0.0 0.0 0.00 0.00 0.00 83 1013.7
20240614052039 23 9 0.0 0.0 0.00 0.00 0.00 83 1013.8
20240614051926 23 9 0.0 0.0 0.00 0.00 0.00 83 1013.7
20240614051901 24 9 0.0 0.0 0.00 0.00 0.00 82 1013.7
20240614051613 24 9 0.0 0.0 0.00 0.00 0.00 83 1013.8
20240614051501 24 9 0.0 3.2 0.00 0.00 0.00 82 1013.7
20240614051409 24 9 0.0 3.2 0.00 0.00 0.00 83 1013.7
20240614051315 24 9 0.0 3.2 0.00 0.00 0.00 82 1013.7
20240614051206 24 9 0.0 3.2 0.00 0.00 0.00 82 1013.8
20240614051115 24 9 0.0 3.2 0.00 0.00 0.00 82 1013.7
20240614051002 24 9 0.0 3.2 0.00 0.00 0.00 82 1013.8
20240614050909 24 9 0.0 3.2 0.00 0.00 0.00 82 1013.8
20240614050817 24 9 0.0 3.2 0.00 0.00 0.00 82 1013.8
20240614050708 24 9 1.6 3.2 0.00 0.00 0.00 83 1013.7
20240614050616 24 9 1.6 3.2 0.00 0.00 0.00 83 1013.7
20240614050503 24 9 1.6 1.6 0.00 0.00 0.00 83 1013.7
20240614050430 24 9 0.0 1.6 0.00 0.00 0.00 83 1013.7
20240614050400 24 9 0.0 1.6 0.00 0.00 0.00 82 1013.7
20240614050133 24 9 0.0 3.2 0.00 0.00 0.00 82 1013.7
20240614050003 24 9 0.0 3.2 0.00 0.00 0.00 82 1013.6
20240614045909 24 9 0.0 3.2 0.00 0.00 0.00 82 1013.6
20240614045816 24 9 0.0 3.2 0.00 0.00 0.00 82 1013.6
20240614045703 24 9 0.0 3.2 0.00 0.00 0.00 82 1013.6
20240614045629 24 9 0.0 3.2 0.00 0.00 0.00 82 1013.6
20240614045500 24 9 0.0 3.2 0.00 0.00 0.00 82 1013.7
20240614045407 24 9 0.0 3.2 0.00 0.00 0.00 81 1013.7
20240614045315 24 9 1.6 3.2 0.00 0.00 0.00 81 1013.7
20240614045203 24 9 1.6 3.2 0.00 0.00 0.00 81 1013.8
20240614045110 24 9 1.6 3.2 0.00 0.00 0.00 81 1013.7
20240614045017 24 9 1.6 3.2 0.00 0.00 0.00 81 1013.8
20240614044928 24 9 1.6 3.2 0.00 0.00 0.00 81 1013.8
20240614044857 24 9 1.6 3.2 0.00 0.00 0.00 81 1013.8
20240614044629 24 9 1.6 3.2 0.00 0.00 0.00 80 1013.9
20240614044515 24 9 1.6 3.2 0.00 0.00 0.00 80 1013.8
20240614044423 24 9 1.6 3.2 0.00 0.00 0.00 80 1013.9
20240614044309 24 9 1.6 3.2 0.00 0.00 0.00 80 1013.9
20240614044201 24 9 1.6 3.2 0.00 0.00 0.00 80 1014.0
20240614044107 24 9 1.6 3.2 0.00 0.00 0.00 80 1014.0
20240614044015 24 9 1.6 3.2 0.00 0.00 0.00 79 1014.1
20240614043902 25 9 1.6 3.2 0.00 0.00 0.00 80 1014.1
20240614043809 25 9 1.6 3.2 0.00 0.00 0.00 80 1014.1
20240614043701 25 9 1.6 3.2 0.00 0.00 0.00 79 1014.1
20240614043628 25 9 1.6 3.2 0.00 0.00 0.00 79 1014.1
20240614043515 25 9 1.6 3.2 0.00 0.00 0.00 79 1014.1
20240614043402 25 9 1.6 3.2 0.00 0.00 0.00 79 1014.1
20240614043334 25 9 1.6 3.2 0.00 0.00 0.00 79 1014.1
20240614043111 25 9 1.6 3.2 0.00 0.00 0.00 80 1014.2
20240614042958 25 9 1.6 3.2 0.00 0.00 0.00 80 1014.3
20240614042905 25 9 1.6 3.2 0.00 0.00 0.00 79 1014.2
20240614042812 25 9 1.6 3.2 0.00 0.00 0.00 79 1014.3
20240614042701 25 9 1.6 3.2 0.00 0.00 0.00 79 1014.3
20240614042612 25 9 1.6 3.2 0.00 0.00 0.00 79 1014.3
20240614042517 25 9 1.6 3.2 0.00 0.00 0.00 79 1014.3
20240614042405 25 9 1.6 4.8 0.00 0.00 0.00 79 1014.4
20240614042332 25 9 1.6 4.8 0.00 0.00 0.00 79 1014.4
20240614042159 25 9 1.6 4.8 0.00 0.00 0.00 78 1014.3
20240614042106 25 9 1.6 4.8 0.00 0.00 0.00 79 1014.2
20240614042032 25 9 1.6 4.8 0.00 0.00 0.00 79 1014.3
20240614041903 25 9 3.2 4.8 0.00 0.00 0.00 79 1014.3
20240614041833 25 9 3.2 4.8 0.00 0.00 0.00 79 1014.3
20240614041608 25 9 3.2 4.8 0.00 0.00 0.00 79 1014.3
20240614041535 25 9 3.2 4.8 0.00 0.00 0.00 79 1014.2
20240614041406 25 9 3.2 4.8 0.00 0.00 0.00 78 1014.3
20240614041314 25 9 3.2 4.8 0.00 0.00 0.00 79 1014.2
20240614041202 25 9 3.2 4.8 0.00 0.00 0.00 79 1014.2
20240614041109 25 9 3.2 4.8 0.00 0.00 0.00 78 1014.2
20240614041016 25 9 3.2 4.8 0.00 0.00 0.00 78 1014.2
20240614040903 25 9 3.2 4.8 0.00 0.00 0.00 78 1014.2
20240614040815 25 9 3.2 4.8 0.00 0.00 0.00 78 1014.2
20240614040702 25 9 3.2 4.8 0.00 0.00 0.00 78 1014.2
20240614040611 25 9 3.2 4.8 0.00 0.00 0.00 78 1014.1
20240614040459 25 9 1.6 4.8 0.00 0.00 0.00 78 1014.1
20240614040426 25 9 1.6 4.8 0.00 0.00 0.00 78 1014.1
20240614040338 25 9 1.6 4.8 0.00 0.00 0.00 79 1014.1
20240614040112 25 9 0.0 4.8 0.00 0.00 0.00 79 1014.1
20240614035958 25 9 1.6 4.8 0.00 0.00 0.00 79 1014.1
20240614035927 25 9 1.6 4.8 0.00 0.00 0.00 78 1014.1
20240614035812 25 9 3.2 4.8 0.00 0.00 0.00 78 1014.1
20240614035703 25 9 1.6 4.8 0.00 0.00 0.00 78 1014.0
20240614035611 25 9 1.6 4.8 0.00 0.00 0.00 78 1014.1
20240614035518 25 9 1.6 4.8 0.00 0.00 0.00 78 1014.0
20240614035405 25 9 1.6 4.8 0.00 0.00 0.00 78 1014.0
20240614035313 25 9 1.6 4.8 0.00 0.00 0.00 78 1014.0
20240614035200 25 9 3.2 4.8 0.00 0.00 0.00 78 1014.1
20240614035113 25 9 3.2 4.8 0.00 0.00 0.00 78 1013.9
20240614035001 25 9 3.2 4.8 0.00 0.00 0.00 78 1013.9
20240614034908 25 9 3.2 4.8 0.00 0.00 0.00 78 1013.9
20240614034836 25 9 3.2 4.8 0.00 0.00 0.00 78 1013.9
20240614034631 25 9 4.8 4.8 0.00 0.00 0.00 78 1013.9
20240614034501 25 9 3.2 4.8 0.00 0.00 0.00 78 1013.9
20240614034408 25 9 3.2 4.8 0.00 0.00 0.00 78 1013.9
20240614034336 25 9 3.2 4.8 0.00 0.00 0.00 78 1013.9
20240614034200 25 32 1.6 3.2 0.00 0.00 0.00 78 1013.9
20240614034107 25 32 1.6 3.2 0.00 0.00 0.00 78 1013.9
20240614034035 25 32 1.6 3.2 0.00 0.00 0.00 77 1013.8
20240614033905 25 32 1.6 3.2 0.00 0.00 0.00 77 1013.8
20240614033833 25 32 1.6 3.2 0.00 0.00 0.00 77 1013.8
20240614033739 25 32 1.6 3.2 0.00 0.00 0.00 77 1013.8
20240614033605 25 32 1.6 3.2 0.00 0.00 0.00 77 1013.7
20240614033511 25 32 1.6 3.2 0.00 0.00 0.00 77 1013.7
20240614033400 25 11 1.6 3.2 0.00 0.00 0.00 76 1013.7
20240614033335 25 11 1.6 3.2 0.00 0.00 0.00 76 1013.7
20240614033107 25 11 1.6 3.2 0.00 0.00 0.00 76 1013.7
20240614033036 25 11 1.6 4.8 0.00 0.00 0.00 76 1013.6
20240614032902 25 11 1.6 4.8 0.00 0.00 0.00 76 1013.7
20240614032811 25 11 1.6 4.8 0.00 0.00 0.00 76 1013.6
20240614032702 25 11 1.6 4.8 0.00 0.00 0.00 76 1013.6
20240614032609 25 11 1.6 4.8 0.00 0.00 0.00 76 1013.6
20240614032517 25 11 1.6 4.8 0.00 0.00 0.00 75 1013.6
20240614032424 25 11 3.2 4.8 0.00 0.00 0.00 75 1013.6
20240614032310 25 11 3.2 4.8 0.00 0.00 0.00 75 1013.6
20240614032238 25 11 3.2 4.8 0.00 0.00 0.00 75 1013.6
20240614032109 25 11 3.2 4.8 0.00 0.00 0.00 75 1013.7
20240614032017 25 11 3.2 4.8 0.00 0.00 0.00 75 1013.6
20240614031904 25 11 3.2 4.8 0.00 0.00 0.00 75 1013.6
20240614031834 25 11 3.2 4.8 0.00 0.00 0.00 75 1013.6
20240614031607 25 11 3.2 4.8 0.00 0.00 0.00 75 1013.5
20240614031518 25 11 3.2 4.8 0.00 0.00 0.00 75 1013.5
20240614031405 25 11 3.2 4.8 0.00 0.00 0.00 75 1013.5
20240614031313 25 11 1.6 3.2 0.00 0.00 0.00 75 1013.4
20240614031201 25 11 1.6 4.8 0.00 0.00 0.00 75 1013.5
20240614031108 25 11 1.6 4.8 0.00 0.00 0.00 75 1013.5
20240614031020 25 11 1.6 4.8 0.00 0.00 0.00 74 1013.5
20240614030905 26 11 3.2 4.8 0.00 0.00 0.00 74 1013.5
20240614030812 26 11 3.2 4.8 0.00 0.00 0.00 74 1013.5
20240614030721 26 11 3.2 4.8 0.00 0.00 0.00 74 1013.5
20240614030608 26 11 3.2 4.8 0.00 0.00 0.00 74 1013.4
20240614030536 26 11 3.2 4.8 0.00 0.00 0.00 74 1013.4
20240614030421 26 11 3.2 4.8 0.00 0.00 0.00 74 1013.4
20240614030335 26 11 3.2 4.8 0.00 0.00 0.00 74 1013.4
20240614030128 26 11 3.2 4.8 0.00 0.00 0.00 74 1013.4
20240614030016 26 11 3.2 4.8 0.00 0.00 0.00 73 1013.3
20240614025902 26 11 3.2 4.8 0.00 0.00 0.00 73 1013.4
20240614025809 26 32 3.2 3.2 0.00 0.00 0.00 72 1013.3
20240614025700 26 53 1.6 3.2 0.00 0.00 0.00 72 1013.3
20240614025607 26 53 1.6 3.2 0.00 0.00 0.00 72 1013.3
20240614025514 26 53 1.6 3.2 0.00 0.00 0.00 72 1013.3
20240614025403 26 53 1.6 3.2 0.00 0.00 0.00 72 1013.3
20240614025310 26 53 1.6 3.2 0.00 0.00 0.00 72 1013.4
20240614025202 26 53 1.6 3.2 0.00 0.00 0.00 72 1013.3
20240614025110 26 53 1.6 3.2 0.00 0.00 0.00 72 1013.3
20240614025018 26 53 0.0 3.2 0.00 0.00 0.00 72 1013.3
20240614024925 26 82 0.0 1.6 0.00 0.00 0.00 72 1013.4
20240614024835 26 82 0.0 1.6 0.00 0.00 0.00 72 1013.4
20240614024629 26 82 0.0 1.6 0.00 0.00 0.00 73 1013.4
20240614024459 26 82 0.0 1.6 0.00 0.00 0.00 73 1013.4
20240614024407 26 82 0.0 1.6 0.00 0.00 0.00 73 1013.4
20240614024314 26 82 0.0 1.6 0.00 0.00 0.00 73 1013.3
20240614024201 26 82 0.0 1.6 0.00 0.00 0.00 72 1013.4
20240614024109 26 82 0.0 1.6 0.00 0.00 0.00 72 1013.4
20240614024001 26 82 0.0 1.6 0.00 0.00 0.00 71 1013.4
20240614023909 26 82 0.0 1.6 0.00 0.00 0.00 71 1013.4
20240614023816 26 82 0.0 1.6 0.00 0.00 0.00 70 1013.3
20240614023702 26 82 0.0 1.6 0.00 0.00 0.00 70 1013.3
20240614023610 26 82 0.0 1.6 0.00 0.00 0.00 71 1013.3
20240614023501 26 82 0.0 1.6 0.00 0.00 0.00 71 1013.3
20240614023428 26 82 0.0 1.6 0.00 0.00 0.00 71 1013.3
20240614023359 26 82 0.0 1.6 0.00 0.00 0.00 71 1013.3
20240614023112 26 82 0.0 1.6 0.00 0.00 0.00 71 1013.2
20240614023000 26 82 0.0 1.6 0.00 0.00 0.00 71 1013.2
20240614022911 26 82 0.0 0.0 0.00 0.00 0.00 71 1013.2
20240614022818 26 78 0.0 0.0 0.00 0.00 0.00 71 1013.1
20240614022706 27 41 0.0 0.0 0.00 0.00 0.00 70 1013.1
20240614022613 27 41 0.0 0.0 0.00 0.00 0.00 70 1013.1
20240614022521 27 355 0.0 0.0 0.00 0.00 0.00 70 1013.1
20240614022408 27 355 0.0 0.0 0.00 0.00 0.00 70 1013.0
20240614022259 27 355 0.0 0.0 0.00 0.00 0.00 70 1013.0
20240614022205 27 355 0.0 0.0 0.00 0.00 0.00 70 1013.0
20240614022113 27 355 0.0 0.0 0.00 0.00 0.00 70 1013.1
20240614022000 27 355 0.0 0.0 0.00 0.00 0.00 70 1013.1
20240614021927 27 355 0.0 0.0 0.00 0.00 0.00 70 1013.0
20240614021900 27 355 0.0 0.0 0.00 0.00 0.00 70 1013.0
20240614021613 27 355 0.0 0.0 0.00 0.00 0.00 70 1013.1
20240614021459 27 355 0.0 0.0 0.00 0.00 0.00 70 1013.1
20240614021407 27 355 0.0 0.0 0.00 0.00 0.00 70 1013.1
20240614021314 27 355 0.0 0.0 0.00 0.00 0.00 70 1013.1
20240614021221 27 330 0.0 0.0 0.00 0.00 0.00 69 1013.2
20240614021127 27 330 0.0 0.0 0.00 0.00 0.00 69 1013.2
20240614021018 27 330 0.0 0.0 0.00 0.00 0.00 69 1013.1
20240614020925 27 296 0.0 0.0 0.00 0.00 0.00 69 1013.2
20240614020811 27 296 0.0 1.6 0.00 0.00 0.00 68 1013.2
20240614020738 27 296 0.0 1.6 0.00 0.00 0.00 68 1013.1
20240614020603 27 296 0.0 1.6 0.00 0.00 0.00 68 1013.1
20240614020511 27 296 0.0 1.6 0.00 0.00 0.00 68 1013.1
20240614020438 27 296 0.0 3.2 0.00 0.00 0.00 68 1013.1
20240614020351 27 296 0.0 3.2 0.00 0.00 0.00 68 1013.1
20240614020105 27 296 0.0 3.2 0.00 0.00 0.00 68 1013.2
20240614020014 27 296 0.0 3.2 0.00 0.00 0.00 68 1013.1
20240614015900 27 296 0.0 3.2 0.00 0.00 0.00 68 1013.2
20240614015812 27 296 0.0 3.2 0.00 0.00 0.00 68 1013.1
20240614015659 27 296 0.0 3.2 0.00 0.00 0.00 68 1013.1
20240614015607 27 296 1.6 3.2 0.00 0.00 0.00 68 1013.1
20240614015514 27 296 1.6 3.2 0.00 0.00 0.00 68 1013.1
20240614015402 27 301 1.6 3.2 0.00 0.00 0.00 68 1013.1
20240614015314 27 299 1.6 3.2 0.00 0.00 0.00 68 1013.2
20240614015200 28 299 1.6 3.2 0.00 0.00 0.00 68 1013.2
20240614015106 28 295 0.0 3.2 0.00 0.00 0.00 67 1013.1
20240614015014 28 295 0.0 3.2 0.00 0.00 0.00 67 1013.2
20240614014901 28 295 0.0 3.2 0.00 0.00 0.00 66 1013.1
20240614014835 28 295 0.0 3.2 0.00 0.00 0.00 66 1013.1
20240614014608 28 304 0.0 3.2 0.00 0.00 0.00 66 1013.1
20240614014536 28 304 0.0 3.2 0.00 0.00 0.00 65 1013.1
20240614014402 28 304 1.6 3.2 0.00 0.00 0.00 66 1013.1
20240614014329 28 304 1.6 3.2 0.00 0.00 0.00 65 1013.1
20240614014216 28 313 1.6 3.2 0.00 0.00 0.00 65 1013.0
20240614014128 28 297 0.0 1.6 0.00 0.00 0.00 65 1013.1
20240614014033 28 297 0.0 1.6 0.00 0.00 0.00 65 1013.1
20240614013859 28 297 0.0 0.0 0.00 0.00 0.00 65 1013.1
20240614013807 28 297 0.0 0.0 0.00 0.00 0.00 64 1013.0
20240614013715 28 297 0.0 0.0 0.00 0.00 0.00 64 1013.0
20240614013601 28 297 0.0 0.0 0.00 0.00 0.00 63 1013.0
20240614013508 28 297 0.0 0.0 0.00 0.00 0.00 63 1012.9
20240614013439 28 297 0.0 1.6 0.00 0.00 0.00 63 1012.9
20240614013347 28 297 0.0 1.6 0.00 0.00 0.00 63 1012.9
20240614013101 28 297 0.0 1.6 0.00 0.00 0.00 63 1013.0
20240614013028 28 297 0.0 1.6 0.00 0.00 0.00 62 1013.0
20240614012915 29 297 0.0 1.6 0.00 0.00 0.00 62 1013.0
20240614012827 29 297 0.0 3.2 0.00 0.00 0.00 62 1013.0
20240614012712 29 297 0.0 3.2 0.00 0.00 0.00 62 1013.1
20240614012559 29 297 0.0 3.2 0.00 0.00 0.00 61 1013.1
20240614012505 29 304 1.6 3.2 0.00 0.00 0.00 61 1013.1
20240614012414 29 304 1.6 3.2 0.00 0.00 0.00 61 1013.1
20240614012301 29 304 0.0 3.2 0.00 0.00 0.00 60 1013.1
20240614012232 29 304 1.6 3.2 0.00 0.00 0.00 60 1013.1
20240614012139 29 304 1.6 6.4 0.00 0.00 0.00 60 1013.0
20240614012005 30 304 1.6 6.4 0.00 0.00 0.00 60 1013.2
20240614011913 30 304 0.0 6.4 0.00 0.00 0.00 60 1013.0
20240614011844 30 304 0.0 6.4 0.00 0.00 0.00 59 1013.0
20240614011621 30 176 0.0 6.4 0.00 0.00 0.00 59 1013.0
20240614011527 30 176 1.6 6.4 0.00 0.00 0.00 59 1013.1
20240614011414 30 176 3.2 6.4 0.00 0.00 0.00 58 1013.0
20240614011302 30 176 3.2 6.4 0.00 0.00 0.00 58 1013.0
20240614011210 30 170 3.2 6.4 0.00 0.00 0.00 58 1013.0
20240614011118 30 187 3.2 4.8 0.00 0.00 0.00 57 1013.0
20240614011008 30 206 3.2 4.8 0.00 0.00 0.00 57 1013.0
20240614010915 30 198 1.6 4.8 0.00 0.00 0.00 57 1013.0
20240614010803 30 192 1.6 4.8 0.00 0.00 0.00 57 1013.1
20240614010711 30 192 1.6 4.8 0.00 0.00 0.00 57 1013.0
20240614010559 30 199 0.0 4.8 0.00 0.00 0.00 57 1013.0
20240614010507 30 199 1.6 4.8 0.00 0.00 0.00 57 1013.0
20240614010417 30 199 3.2 4.8 0.00 0.00 0.00 56 1013.0
20240614010348 30 199 4.8 4.8 0.00 0.00 0.00 56 1013.0
20240614010101 30 182 3.2 4.8 0.00 0.00 0.00 56 1013.0
20240614010008 30 193 3.2 6.4 0.00 0.00 0.00 56 1013.0
20240614005935 30 210 1.6 6.4 0.00 0.00 0.00 55 1013.0
20240614005806 30 211 1.6 6.4 0.00 0.00 0.00 55 1013.0
20240614005713 30 212 3.2 6.4 0.00 0.00 0.00 55 1013.0
20240614005602 30 202 1.6 6.4 0.00 0.00 0.00 55 1013.0
20240614005529 30 193 1.6 6.4 0.00 0.00 0.00 55 1013.1
20240614005416 30 199 1.6 6.4 0.00 0.00 0.00 55 1013.0
20240614005323 30 172 3.2 6.4 0.00 0.00 0.00 55 1013.0
20240614005213 30 168 3.2 8.0 0.00 0.00 0.00 54 1013.0
20240614005100 30 171 3.2 8.0 0.00 0.00 0.00 54 1013.0
20240614005006 30 198 4.8 8.0 0.00 0.00 0.00 54 1013.0
20240614004913 30 213 4.8 8.0 0.00 0.00 0.00 54 1013.0
20240614004843 30 154 4.8 8.0 0.00 0.00 0.00 54 1013.0
20240614004601 30 202 4.8 8.0 0.00 0.00 0.00 54 1013.1
20240614004508 30 193 3.2 8.0 0.00 0.00 0.00 54 1013.2
20240614004415 30 193 3.2 8.0 0.00 0.00 0.00 54 1013.1
20240614004301 30 201 3.2 6.4 0.00 0.00 0.00 54 1013.2
20240614004208 30 196 3.2 6.4 0.00 0.00 0.00 54 1013.2
20240614004059 30 209 3.2 6.4 0.00 0.00 0.00 54 1013.2
20240614004006 30 201 4.8 8.0 0.00 0.00 0.00 53 1013.1
20240614003915 30 207 3.2 8.0 0.00 0.00 0.00 53 1013.2
20240614003802 30 214 3.2 8.0 0.00 0.00 0.00 53 1013.1
20240614003711 30 208 3.2 8.0 0.00 0.00 0.00 53 1013.2
20240614003618 30 195 4.8 8.0 0.00 0.00 0.00 53 1013.3
20240614003528 30 207 4.8 8.0 0.00 0.00 0.00 53 1013.2
20240614003435 30 197 4.8 8.0 0.00 0.00 0.00 53 1013.2
20240614003344 31 202 3.2 8.0 0.00 0.00 0.00 53 1013.2
20240614003059 31 208 3.2 6.4 0.00 0.00 0.00 53 1013.2
20240614003006 31 186 3.2 6.4 0.00 0.00 0.00 53 1013.2
20240614002917 31 196 4.8 6.4 0.00 0.00 0.00 53 1013.1
20240614002803 31 198 4.8 6.4 0.00 0.00 0.00 53 1013.2
20240614002711 31 198 3.2 8.0 0.00 0.00 0.00 53 1013.2
20240614002600 31 211 3.2 8.0 0.00 0.00 0.00 53 1013.1
20240614002528 31 198 3.2 8.0 0.00 0.00 0.00 52 1013.2
20240614002415 31 213 3.2 8.0 0.00 0.00 0.00 52 1013.2
20240614002307 31 199 3.2 8.0 0.00 0.00 0.00 52 1013.3
20240614002213 31 215 1.6 8.0 0.00 0.00 0.00 52 1013.2
20240614002121 31 187 3.2 8.0 0.00 0.00 0.00 52 1013.3
20240614002008 31 213 3.2 8.0 0.00 0.00 0.00 52 1013.2
20240614001915 31 213 4.8 8.0 0.00 0.00 0.00 52 1013.3
20240614001848 31 192 4.8 8.0 0.00 0.00 0.00 52 1013.3
20240614001602 31 205 3.2 6.4 0.00 0.00 0.00 51 1013.2
20240614001510 31 239 3.2 8.0 0.00 0.00 0.00 51 1013.2
20240614001416 31 186 3.2 8.0 0.00 0.00 0.00 51 1013.2
20240614001324 31 198 3.2 8.0 0.00 0.00 0.00 51 1013.3
20240614001211 31 189 3.2 8.0 0.00 0.00 0.00 51 1013.3
20240614001103 31 203 1.6 8.0 0.00 0.00 0.00 52 1013.3
20240614001010 31 196 3.2 8.0 0.00 0.00 0.00 52 1013.3
20240614000938 31 205 3.2 8.0 0.00 0.00 0.00 52 1013.3
20240614000804 31 207 4.8 8.0 0.00 0.00 0.00 51 1013.3
20240614000713 31 204 4.8 8.0 0.00 0.00 0.00 51 1013.3
20240614000603 31 209 3.2 8.0 0.00 0.00 0.00 51 1013.3
20240614000511 31 190 1.6 8.0 0.00 0.00 0.00 52 1013.3
20240614000439 31 181 3.2 8.0 0.00 0.00 0.00 52 1013.3
20240614000348 31 204 3.2 6.4 0.00 0.00 0.00 52 1013.3
20240614000101 31 194 3.2 8.0 0.00 0.00 0.00 52 1013.2
20240614000012 31 199 3.2 8.0 0.00 0.00 0.00 52 1013.3
20240613235900 31 196 1.6 8.0 0.00 0.00 0.00 51 1013.3
20240613235828 31 181 1.6 8.0 0.00 0.00 0.00 51 1013.3
20240613235734 31 234 1.6 8.0 0.00 0.00 0.00 52 1013.3
20240613235600 31 234 3.2 8.0 0.00 0.00 0.00 51 1013.3
20240613235508 31 233 3.2 8.0 0.00 0.00 0.00 51 1013.3
20240613235436 31 246 4.8 8.0 0.00 0.00 0.00 51 1013.3
20240613235306 31 240 4.8 8.0 0.00 0.00 0.00 51 1013.2
20240613235213 31 215 3.2 8.0 0.00 0.00 0.00 51 1013.3
20240613235059 31 201 3.2 6.4 0.00 0.00 0.00 51 1013.3
20240613235028 31 181 1.6 6.4 0.00 0.00 0.00 51 1013.2
20240613234915 31 181 1.6 6.4 0.00 0.00 0.00 51 1013.3
20240613234849 31 181 1.6 4.8 0.00 0.00 0.00 52 1013.3
20240613234603 31 300 1.6 4.8 0.00 0.00 0.00 52 1013.2
20240613234510 31 332 3.2 4.8 0.00 0.00 0.00 51 1013.2
20240613234417 31 344 1.6 4.8 0.00 0.00 0.00 52 1013.2
20240613234325 31 306 1.6 4.8 0.00 0.00 0.00 51 1013.2
20240613234212 31 309 1.6 6.4 0.00 0.00 0.00 51 1013.3
20240613234123 31 260 0.0 6.4 0.00 0.00 0.00 51 1013.3
20240613234011 31 213 1.6 6.4 0.00 0.00 0.00 51 1013.3
20240613233859 31 257 1.6 6.4 0.00 0.00 0.00 52 1013.2
20240613233826 32 323 3.2 6.4 0.00 0.00 0.00 52 1013.2
20240613233713 32 335 3.2 6.4 0.00 0.00 0.00 51 1013.2
20240613233601 32 297 4.8 6.4 0.00 0.00 0.00 51 1013.3
20240613233512 32 324 4.8 6.4 0.00 0.00 0.00 51 1013.2
20240613233421 32 279 4.8 6.4 0.00 0.00 0.00 51 1013.2
20240613233350 32 309 4.8 6.4 0.00 0.00 0.00 51 1013.2
20240613233105 32 347 3.2 6.4 0.00 0.00 0.00 51 1013.2
20240613233012 32 315 1.6 6.4 0.00 0.00 0.00 51 1013.2
20240613232904 32 305 1.6 6.4 0.00 0.00 0.00 51 1013.2
20240613232812 32 342 3.2 6.4 0.00 0.00 0.00 51 1013.1
20240613232700 32 355 4.8 6.4 0.00 0.00 0.00 51 1013.2
20240613232606 32 23 3.2 6.4 0.00 0.00 0.00 51 1013.3
20240613232533 32 20 3.2 6.4 0.00 0.00 0.00 51 1013.2
20240613232404 32 347 3.2 6.4 0.00 0.00 0.00 51 1013.2
20240613232312 32 332 3.2 6.4 0.00 0.00 0.00 51 1013.1
20240613232219 32 355 3.2 6.4 0.00 0.00 0.00 50 1013.2
20240613232105 32 321 3.2 6.4 0.00 0.00 0.00 49 1013.1
20240613232013 32 317 3.2 6.4 0.00 0.00 0.00 49 1013.1
20240613231900 32 323 3.2 8.0 0.00 0.00 0.00 50 1013.0
20240613231835 32 331 3.2 8.0 0.00 0.00 0.00 50 1013.0
20240613231629 32 267 3.2 8.0 0.00 0.00 0.00 49 1013.1
20240613231516 32 255 3.2 8.0 0.00 0.00 0.00 50 1013.0
20240613231423 32 275 3.2 8.0 0.00 0.00 0.00 50 1013.0
20240613231310 32 295 3.2 8.0 0.00 0.00 0.00 50 1013.0
20240613231201 32 338 4.8 8.0 0.00 0.00 0.00 50 1013.0
20240613231109 32 355 4.8 8.0 0.00 0.00 0.00 51 1013.0
20240613231037 32 325 4.8 8.0 0.00 0.00 0.00 50 1013.0
20240613230904 32 303 3.2 8.0 0.00 0.00 0.00 51 1013.0
20240613230811 32 316 4.8 6.4 0.00 0.00 0.00 51 1013.0
20240613230719 32 342 4.8 6.4 0.00 0.00 0.00 50 1012.9
20240613230611 32 351 4.8 6.4 0.00 0.00 0.00 49 1013.0
20240613230518 32 360 4.8 6.4 0.00 0.00 0.00 49 1013.0
20240613230406 32 355 4.8 6.4 0.00 0.00 0.00 48 1013.0
20240613230336 32 349 4.8 6.4 0.00 0.00 0.00 48 1013.0
20240613230113 32 349 3.2 8.0 0.00 0.00 0.00 47 1013.0
20240613230000 32 277 3.2 8.0 0.00 0.00 0.00 48 1013.0
20240613225927 33 252 4.8 8.0 0.00 0.00 0.00 48 1012.9
20240613225812 33 285 3.2 8.0 0.00 0.00 0.00 48 1013.0
20240613225720 33 277 3.2 8.0 0.00 0.00 0.00 48 1012.9
20240613225625 33 261 3.2 8.0 0.00 0.00 0.00 48 1013.1
20240613225531 33 240 4.8 8.0 0.00 0.00 0.00 48 1012.9
20240613225402 33 277 4.8 8.0 0.00 0.00 0.00 48 1012.9
20240613225308 33 351 3.2 8.0 0.00 0.00 0.00 48 1012.9
20240613225214 33 292 3.2 8.0 0.00 0.00 0.00 48 1013.0
20240613225102 33 295 3.2 8.0 0.00 0.00 0.00 48 1013.0
20240613225008 33 293 3.2 8.0 0.00 0.00 0.00 48 1012.9
20240613224917 33 265 3.2 8.0 0.00 0.00 0.00 48 1012.9
20240613224850 33 299 3.2 8.0 0.00 0.00 0.00 48 1012.9
20240613224605 33 283 4.8 8.0 0.00 0.00 0.00 48 1012.8
20240613224512 33 292 3.2 8.0 0.00 0.00 0.00 49 1012.8
20240613224415 33 269 3.2 11.3 0.00 0.00 0.00 50 1012.9
20240613224323 33 309 4.8 12.9 0.00 0.00 0.00 49 1012.9
20240613224213 33 265 4.8 16.1 0.00 0.00 0.00 48 1012.9
20240613224100 33 331 4.8 16.1 0.00 0.00 0.00 48 1012.8
20240613224009 33 313 4.8 16.1 0.00 0.00 0.00 47 1012.9
20240613223936 33 266 4.8 16.1 0.00 0.00 0.00 49 1012.8
20240613223804 33 269 4.8 16.1 0.00 0.00 0.00 49 1012.8
20240613223711 33 221 4.8 16.1 0.00 0.00 0.00 49 1012.9
20240613223623 33 250 8.0 16.1 0.00 0.00 0.00 48 1012.9
20240613223511 33 220 6.4 16.1 0.00 0.00 0.00 49 1012.8
20240613223438 33 188 4.8 12.9 0.00 0.00 0.00 49 1012.8
20240613223348 33 180 4.8 11.3 0.00 0.00 0.00 49 1012.8
20240613223121 33 274 4.8 11.3 0.00 0.00 0.00 49 1012.9
20240613223012 33 336 6.4 12.9 0.00 0.00 0.00 49 1012.9
20240613222900 33 250 8.0 12.9 0.00 0.00 0.00 49 1012.9
20240613222808 33 198 8.0 12.9 0.00 0.00 0.00 50 1012.9
20240613222735 33 202 8.0 12.9 0.00 0.00 0.00 50 1012.9
20240613222601 33 280 6.4 12.9 0.00 0.00 0.00 49 1012.9
20240613222508 33 252 6.4 12.9 0.00 0.00 0.00 49 1012.9
20240613222418 33 192 6.4 12.9 0.00 0.00 0.00 48 1012.9
20240613222306 33 281 8.0 16.1 0.00 0.00 0.00 49 1012.9
20240613222215 33 246 8.0 16.1 0.00 0.00 0.00 49 1012.9
20240613222101 33 278 4.8 16.1 0.00 0.00 0.00 50 1012.9
20240613222029 33 250 4.8 16.1 0.00 0.00 0.00 49 1013.0
20240613221914 33 171 6.4 16.1 0.00 0.00 0.00 49 1013.0
20240613221848 33 188 6.4 16.1 0.00 0.00 0.00 48 1013.0
20240613221600 33 186 8.0 16.1 0.00 0.00 0.00 49 1013.0
20240613221528 33 169 6.4 16.1 0.00 0.00 0.00 48 1013.0
20240613221414 33 207 6.4 17.7 0.00 0.00 0.00 48 1013.0
20240613221321 33 157 1.6 14.5 0.00 0.00 0.00 48 1013.0
20240613221228 33 308 0.0 14.5 0.00 0.00 0.00 46 1013.0
20240613221120 33 229 3.2 14.5 0.00 0.00 0.00 46 1012.9
20240613221007 33 229 6.4 14.5 0.00 0.00 0.00 46 1013.0
20240613220935 33 239 8.0 14.5 0.00 0.00 0.00 46 1013.0
20240613220821 33 221 8.0 14.5 0.00 0.00 0.00 47 1012.9
20240613220707 33 253 6.4 12.9 0.00 0.00 0.00 47 1013.0
20240613220635 33 189 6.4 11.3 0.00 0.00 0.00 47 1013.0
20240613220500 33 194 6.4 12.9 0.00 0.00 0.00 47 1013.1
20240613220412 33 182 4.8 12.9 0.00 0.00 0.00 46 1013.0
20240613220343 33 180 4.8 14.5 0.00 0.00 0.00 46 1013.0
20240613220116 33 247 3.2 14.5 0.00 0.00 0.00 46 1013.0
20240613220002 33 144 6.4 14.5 0.00 0.00 0.00 46 1013.0
20240613215914 33 215 8.0 16.1 0.00 0.00 0.00 46 1013.0
20240613215801 33 218 9.7 16.1 0.00 0.00 0.00 45 1013.1
20240613215708 33 190 8.0 16.1 0.00 0.00 0.00 46 1013.0
20240613215616 33 204 9.7 16.1 0.00 0.00 0.00 47 1013.0
20240613215503 33 173 9.7 16.1 0.00 0.00 0.00 45 1013.0
20240613215410 33 186 6.4 16.1 0.00 0.00 0.00 45 1013.1
20240613215306 33 203 8.0 16.1 0.00 0.00 0.00 46 1013.1
20240613215209 33 208 11.3 16.1 0.00 0.00 0.00 47 1013.1
20240613215117 33 224 8.0 16.1 0.00 0.00 0.00 47 1013.1
20240613215006 33 194 3.2 14.5 0.00 0.00 0.00 47 1013.1
20240613214933 33 181 1.6 14.5 0.00 0.00 0.00 47 1013.1
20240613214907 33 178 1.6 14.5 0.00 0.00 0.00 46 1013.1
20240613214600 33 121 6.4 14.5 0.00 0.00 0.00 47 1013.2
20240613214506 33 199 8.0 16.1 0.00 0.00 0.00 47 1013.1
20240613214414 33 209 8.0 16.1 0.00 0.00 0.00 47 1013.2
20240613214303 33 234 4.8 11.3 0.00 0.00 0.00 45 1013.2
20240613214214 33 232 6.4 11.3 0.00 0.00 0.00 46 1013.2
20240613214100 33 255 4.8 11.3 0.00 0.00 0.00 46 1013.1
20240613214008 33 213 4.8 11.3 0.00 0.00 0.00 47 1013.3
20240613213916 33 278 4.8 11.3 0.00 0.00 0.00 47 1013.2
20240613213823 33 313 6.4 11.3 0.00 0.00 0.00 46 1013.3
20240613213708 33 325 6.4 11.3 0.00 0.00 0.00 46 1013.2
20240613213600 33 287 6.4 11.3 0.00 0.00 0.00 45 1013.2
20240613213506 33 218 4.8 11.3 0.00 0.00 0.00 46 1013.2
20240613213413 33 193 4.8 11.3 0.00 0.00 0.00 46 1013.2
20240613213343 33 263 6.4 12.9 0.00 0.00 0.00 46 1013.2
20240613213101 33 276 6.4 12.9 0.00 0.00 0.00 49 1013.3
20240613213006 33 279 6.4 11.3 0.00 0.00 0.00 47 1013.2
20240613212914 33 294 6.4 11.3 0.00 0.00 0.00 48 1013.3
20240613212821 33 263 3.2 8.0 0.00 0.00 0.00 48 1013.3
20240613212707 33 161 3.2 8.0 0.00 0.00 0.00 49 1013.4
20240613212634 33 224 1.6 8.0 0.00 0.00 0.00 48 1013.3
20240613212504 33 200 1.6 8.0 0.00 0.00 0.00 49 1013.3
20240613212432 33 177 1.6 9.7 0.00 0.00 0.00 47 1013.3
20240613212318 33 177 3.2 9.7 0.00 0.00 0.00 47 1013.3
20240613212224 33 202 4.8 12.9 0.00 0.00 0.00 47 1013.3
20240613212131 33 246 4.8 12.9 0.00 0.00 0.00 50 1013.4
20240613212017 33 263 4.8 12.9 0.00 0.00 0.00 49 1013.3
20240613211924 33 251 4.8 12.9 0.00 0.00 0.00 49 1013.3
20240613211838 33 251 4.8 12.9 0.00 0.00 0.00 49 1013.3
20240613211631 33 260 6.4 16.1 0.00 0.00 0.00 48 1013.3
20240613211518 33 215 6.4 16.1 0.00 0.00 0.00 49 1013.3
20240613211404 33 238 4.8 16.1 0.00 0.00 0.00 50 1013.2
20240613211313 33 172 4.8 16.1 0.00 0.00 0.00 49 1013.2
20240613211205 33 219 4.8 16.1 0.00 0.00 0.00 49 1013.3
20240613211110 33 167 4.8 16.1 0.00 0.00 0.00 50 1013.3
20240613211018 33 184 6.4 16.1 0.00 0.00 0.00 49 1013.3
20240613210905 33 190 9.7 16.1 0.00 0.00 0.00 49 1013.3
20240613210813 33 205 9.7 16.1 0.00 0.00 0.00 49 1013.3
20240613210701 33 165 4.8 12.9 0.00 0.00 0.00 50 1013.3
20240613210611 33 188 4.8 12.9 0.00 0.00 0.00 49 1013.3
20240613210459 33 213 4.8 12.9 0.00 0.00 0.00 48 1013.3
20240613210425 33 189 8.0 12.9 0.00 0.00 0.00 48 1013.4
20240613210335 33 218 8.0 12.9 0.00 0.00 0.00 49 1013.4
20240613210110 33 167 6.4 11.3 0.00 0.00 0.00 49 1013.4
20240613210020 33 206 4.8 12.9 0.00 0.00 0.00 50 1013.3
20240613205905 33 232 4.8 12.9 0.00 0.00 0.00 49 1013.3
20240613205833 33 244 6.4 12.9 0.00 0.00 0.00 49 1013.2
20240613205739 33 263 6.4 12.9 0.00 0.00 0.00 49 1013.2
20240613205607 33 226 4.8 11.3 0.00 0.00 0.00 50 1013.3
20240613205533 32 301 3.2 11.3 0.00 0.00 0.00 49 1013.3
20240613205400 32 271 1.6 11.3 0.00 0.00 0.00 49 1013.3
20240613205313 32 255 1.6 14.5 0.00 0.00 0.00 49 1013.2
20240613205200 32 224 1.6 17.7 0.00 0.00 0.00 50 1013.3
20240613205107 32 134 1.6 17.7 0.00 0.00 0.00 49 1013.3
20240613205015 32 178 3.2 17.7 0.00 0.00 0.00 49 1013.3
20240613204903 32 147 4.8 17.7 0.00 0.00 0.00 50 1013.4
20240613204840 32 150 6.4 17.7 0.00 0.00 0.00 50 1013.4
20240613204633 32 171 9.7 17.7 0.00 0.00 0.00 48 1013.4
20240613204500 32 188 11.3 17.7 0.00 0.00 0.00 48 1013.4
20240613204407 32 207 8.0 16.1 0.00 0.00 0.00 48 1013.4
20240613204314 32 209 6.4 16.1 0.00 0.00 0.00 48 1013.4
20240613204204 32 180 4.8 16.1 0.00 0.00 0.00 48 1013.4
20240613204132 32 147 8.0 16.1 0.00 0.00 0.00 48 1013.4
20240613203959 33 199 9.7 16.1 0.00 0.00 0.00 47 1013.4
20240613203908 33 209 8.0 16.1 0.00 0.00 0.00 49 1013.4
20240613203835 33 173 6.4 16.1 0.00 0.00 0.00 49 1013.4
20240613203720 33 234 9.7 14.5 0.00 0.00 0.00 48 1013.3
20240613203607 33 196 9.7 14.5 0.00 0.00 0.00 48 1013.4
20240613203459 33 220 8.0 14.5 0.00 0.00 0.00 49 1013.4
20240613203426 33 190 6.4 14.5 0.00 0.00 0.00 49 1013.4
20240613203334 33 205 6.4 14.5 0.00 0.00 0.00 49 1013.4
20240613203109 33 223 4.8 12.9 0.00 0.00 0.00 50 1013.5
20240613203017 32 277 4.8 17.7 0.00 0.00 0.00 51 1013.4
20240613202929 32 211 4.8 17.7 0.00 0.00 0.00 50 1013.5
20240613202835 32 224 4.8 17.7 0.00 0.00 0.00 51 1013.5
20240613202722 32 186 6.4 17.7 0.00 0.00 0.00 49 1013.5
20240613202608 32 135 8.0 17.7 0.00 0.00 0.00 51 1013.5
20240613202517 32 169 8.0 17.7 0.00 0.00 0.00 51 1013.5
20240613202404 32 157 4.8 19.3 0.00 0.00 0.00 51 1013.5
20240613202313 32 159 6.4 19.3 0.00 0.00 0.00 51 1013.5
20240613202205 32 257 6.4 19.3 0.00 0.00 0.00 49 1013.5
20240613202113 32 237 8.0 19.3 0.00 0.00 0.00 50 1013.5
20240613202001 32 237 6.4 19.3 0.00 0.00 0.00 50 1013.5
20240613201909 32 228 8.0 19.3 0.00 0.00 0.00 48 1013.5
20240613201844 32 219 9.7 19.3 0.00 0.00 0.00 48 1013.5
20240613201617 32 178 11.3 19.3 0.00 0.00 0.00 51 1013.5
20240613201505 32 182 12.9 20.9 0.00 0.00 0.00 51 1013.5
20240613201411 32 148 14.5 20.9 0.00 0.00 0.00 50 1013.5
20240613201317 32 152 11.3 19.3 0.00 0.00 0.00 52 1013.5
20240613201210 32 184 6.4 17.7 0.00 0.00 0.00 50 1013.5
20240613201117 32 192 6.4 17.7 0.00 0.00 0.00 49 1013.6
20240613201004 33 128 8.0 17.7 0.00 0.00 0.00 49 1013.5
20240613200931 33 175 9.7 17.7 0.00 0.00 0.00 49 1013.5
20240613200817 33 190 11.3 17.7 0.00 0.00 0.00 50 1013.6
20240613200704 33 167 9.7 17.7 0.00 0.00 0.00 49 1013.5
20240613200616 33 155 6.4 17.7 0.00 0.00 0.00 53 1013.6
20240613200504 32 213 1.6 11.3 0.00 0.00 0.00 53 1013.6
20240613200410 32 260 1.6 12.9 0.00 0.00 0.00 52 1013.5
20240613200341 32 192 1.6 14.5 0.00 0.00 0.00 50 1013.5
20240613200059 32 130 4.8 14.5 0.00 0.00 0.00 50 1013.6
20240613200007 32 183 8.0 17.7 0.00 0.00 0.00 50 1013.6
20240613195914 32 130 8.0 17.7 0.00 0.00 0.00 51 1013.7
20240613195802 32 355 8.0 17.7 0.00 0.00 0.00 50 1013.7
20240613195708 32 207 8.0 17.7 0.00 0.00 0.00 51 1013.6
20240613195637 32 139 8.0 17.7 0.00 0.00 0.00 52 1013.7
20240613195507 32 172 8.0 17.7 0.00 0.00 0.00 51 1013.6
20240613195415 32 117 9.7 17.7 0.00 0.00 0.00 50 1013.7
20240613195306 32 198 12.9 17.7 0.00 0.00 0.00 49 1013.7
20240613195210 32 167 12.9 17.7 0.00 0.00 0.00 49 1013.4
20240613195117 32 196 11.3 19.3 0.00 0.00 0.00 49 1013.6
20240613195043 32 129 8.0 17.7 0.00 0.00 0.00 51 1013.6
20240613194949 32 145 4.8 17.7 0.00 0.00 0.00 51 1013.7
20240613194903 32 137 3.2 16.1 0.00 0.00 0.00 56 1013.7
20240613194616 32 166 6.4 16.1 0.00 0.00 0.00 52 1013.7
20240613194503 32 225 8.0 16.1 0.00 0.00 0.00 51 1013.7
20240613194411 32 218 6.4 16.1 0.00 0.00 0.00 52 1013.7
20240613194302 32 205 9.7 17.7 0.00 0.00 0.00 52 1013.9
20240613194229 32 134 9.7 17.7 0.00 0.00 0.00 50 1013.7
20240613194115 32 130 8.0 17.7 0.00 0.00 0.00 51 1013.8
20240613194001 32 195 8.0 17.7 0.00 0.00 0.00 48 1013.9
20240613193908 32 171 11.3 17.7 0.00 0.00 0.00 51 1013.7
20240613193835 32 181 9.7 17.7 0.00 0.00 0.00 50 1013.8
20240613193700 32 205 9.7 17.7 0.00 0.00 0.00 51 1013.7
20240613193610 32 198 9.7 17.7 0.00 0.00 0.00 52 1013.8
20240613193537 32 190 11.3 17.7 0.00 0.00 0.00 52 1013.8
20240613193424 32 205 9.7 16.1 0.00 0.00 0.00 54 1013.6
20240613193334 32 174 11.3 16.1 0.00 0.00 0.00 54 1013.6
20240613193108 32 132 8.0 16.1 0.00 0.00 0.00 52 1013.8
20240613193000 32 152 6.4 16.1 0.00 0.00 0.00 52 1013.8
20240613192926 32 199 8.0 16.1 0.00 0.00 0.00 53 1013.9
20240613192812 32 209 8.0 16.1 0.00 0.00 0.00 53 1014.0
20240613192659 32 216 6.4 16.1 0.00 0.00 0.00 52 1013.8
20240613192606 32 239 6.4 12.9 0.00 0.00 0.00 53 1014.0
20240613192511 32 194 6.4 12.9 0.00 0.00 0.00 53 1013.9
20240613192403 31 196 4.8 12.9 0.00 0.00 0.00 55 1013.9
20240613192310 31 246 3.2 11.3 0.00 0.00 0.00 56 1013.9
20240613192158 31 198 1.6 11.3 0.00 0.00 0.00 54 1014.0
20240613192106 31 119 1.6 16.1 0.00 0.00 0.00 56 1013.9
20240613192013 31 76 1.6 16.1 0.00 0.00 0.00 54 1013.8
20240613191859 31 355 1.6 16.1 0.00 0.00 0.00 54 1013.9
20240613191835 31 360 1.6 16.1 0.00 0.00 0.00 55 1013.9
20240613191607 31 147 4.8 17.7 0.00 0.00 0.00 54 1014.0
20240613191515 31 114 6.4 19.3 0.00 0.00 0.00 56 1014.1
20240613191403 31 132 6.4 19.3 0.00 0.00 0.00 54 1014.1
20240613191313 31 131 8.0 19.3 0.00 0.00 0.00 55 1014.1
20240613191200 31 126 9.7 19.3 0.00 0.00 0.00 55 1014.1
20240613191128 31 132 9.7 19.3 0.00 0.00 0.00 54 1014.1
20240613191014 31 128 9.7 19.3 0.00 0.00 0.00 55 1014.1
20240613190902 31 156 12.9 19.3 0.00 0.00 0.00 55 1014.1
20240613190809 31 119 12.9 19.3 0.00 0.00 0.00 54 1014.1
20240613190721 31 134 9.7 19.3 0.00 0.00 0.00 53 1014.1
20240613190607 32 162 8.0 14.5 0.00 0.00 0.00 52 1014.1
20240613190534 32 123 8.0 14.5 0.00 0.00 0.00 52 1014.1
20240613190439 32 142 6.4 14.5 0.00 0.00 0.00 52 1014.1
20240613190409 32 136 4.8 14.5 0.00 0.00 0.00 53 1014.1
20240613190103 32 94 3.2 11.3 0.00 0.00 0.00 53 1014.2
20240613190015 32 294 4.8 11.3 0.00 0.00 0.00 52 1014.1
20240613185900 32 213 4.8 12.9 0.00 0.00 0.00 55 1014.2
20240613185808 32 182 4.8 12.9 0.00 0.00 0.00 54 1014.2
20240613185715 32 140 3.2 12.9 0.00 0.00 0.00 53 1014.3
20240613185604 32 115 1.6 12.9 0.00 0.00 0.00 53 1014.2
20240613185511 32 231 3.2 12.9 0.00 0.00 0.00 53 1014.3
20240613185402 32 159 3.2 12.9 0.00 0.00 0.00 55 1014.3
20240613185310 32 237 6.4 12.9 0.00 0.00 0.00 53 1014.3
20240613185218 32 127 6.4 12.9 0.00 0.00 0.00 54 1014.2
20240613185125 32 130 6.4 11.3 0.00 0.00 0.00 54 1014.3
20240613185010 32 125 6.4 12.9 0.00 0.00 0.00 54 1014.3
20240613184917 31 148 4.8 12.9 0.00 0.00 0.00 54 1014.2
20240613184851 31 137 4.8 12.9 0.00 0.00 0.00 54 1014.2
20240613184604 31 98 4.8 14.5 0.00 0.00 0.00 52 1014.3
20240613184512 31 117 6.4 19.3 0.00 0.00 0.00 53 1014.3
20240613184400 31 116 6.4 22.5 0.00 0.00 0.00 53 1014.3
20240613184310 31 94 6.4 22.5 0.00 0.00 0.00 54 1014.7
20240613184216 31 148 6.4 22.5 0.00 0.00 0.00 53 1014.1
20240613184102 31 226 6.4 22.5 0.00 0.00 0.00 52 1014.3
20240613184009 31 200 8.0 22.5 0.00 0.00 0.00 51 1014.3
20240613183916 31 213 8.0 22.5 0.00 0.00 0.00 51 1014.3
20240613183823 31 227 8.0 22.5 0.00 0.00 0.00 51 1014.3
20240613183713 31 137 9.7 22.5 0.00 0.00 0.00 53 1014.2
20240613183621 31 142 6.4 22.5 0.00 0.00 0.00 56 1014.3
20240613183507 31 153 1.6 12.9 0.00 0.00 0.00 55 1014.3
20240613183414 31 48 1.6 12.9 0.00 0.00 0.00 54 1014.3
20240613183346 31 63 1.6 12.9 0.00 0.00 0.00 54 1014.3
20240613183103 31 158 1.6 12.9 0.00 0.00 0.00 54 1014.3
20240613183012 31 88 1.6 12.9 0.00 0.00 0.00 54 1014.3
20240613182900 31 49 4.8 12.9 0.00 0.00 0.00 52 1014.3
20240613182806 31 109 6.4 16.1 0.00 0.00 0.00 56 1014.3
20240613182713 31 119 6.4 16.1 0.00 0.00 0.00 57 1014.3
20240613182604 31 120 1.6 16.1 0.00 0.00 0.00 55 1014.4
20240613182512 31 221 1.6 16.1 0.00 0.00 0.00 56 1014.4
20240613182400 31 186 1.6 16.1 0.00 0.00 0.00 55 1014.5
20240613182309 31 186 3.2 16.1 0.00 0.00 0.00 56 1014.5
20240613182216 31 186 4.8 16.1 0.00 0.00 0.00 57 1014.4
20240613182125 31 189 8.0 16.1 0.00 0.00 0.00 57 1014.5
20240613182034 31 178 8.0 17.7 0.00 0.00 0.00 56 1014.5
20240613182002 31 196 4.8 17.7 0.00 0.00 0.00 56 1014.5
20240613181911 31 157 1.6 17.7 0.00 0.00 0.00 59 1014.5
20240613181623 30 117 1.6 17.7 0.00 0.00 0.00 55 1014.6
20240613181509 30 117 6.4 17.7 0.00 0.00 0.00 56 1014.5
20240613181402 31 167 11.3 17.7 0.00 0.00 0.00 55 1014.6
20240613181309 31 151 12.9 17.7 0.00 0.00 0.00 56 1014.5
20240613181216 31 107 12.9 17.7 0.00 0.00 0.00 56 1014.4
20240613181103 31 141 8.0 17.7 0.00 0.00 0.00 54 1014.6
20240613181011 31 144 4.8 14.5 0.00 0.00 0.00 56 1014.6
20240613180900 31 16 4.8 14.5 0.00 0.00 0.00 56 1014.5
20240613180811 31 56 4.8 14.5 0.00 0.00 0.00 56 1014.5
20240613180738 31 19 4.8 14.5 0.00 0.00 0.00 56 1014.5
20240613180604 31 153 6.4 14.5 0.00 0.00 0.00 56 1014.5
20240613180513 31 111 8.0 14.5 0.00 0.00 0.00 56 1014.6
20240613180400 31 80 8.0 14.5 0.00 0.00 0.00 57 1014.6
20240613180334 31 94 6.4 14.5 0.00 0.00 0.00 56 1014.6
20240613180108 31 118 4.8 9.7 0.00 0.00 0.00 57 1014.5
20240613180015 30 116 3.2 6.4 0.00 0.00 0.00 56 1014.6
20240613175902 30 113 3.2 8.0 0.00 0.00 0.00 59 1014.5
20240613175810 30 205 3.2 8.0 0.00 0.00 0.00 57 1014.6
20240613175702 30 170 3.2 8.0 0.00 0.00 0.00 56 1014.6
20240613175608 30 222 3.2 11.3 0.00 0.00 0.00 57 1014.5
20240613175515 30 194 3.2 11.3 0.00 0.00 0.00 57 1014.6
20240613175402 30 186 3.2 11.3 0.00 0.00 0.00 55 1014.6
20240613175309 30 163 3.2 16.1 0.00 0.00 0.00 55 1014.6
20240613175159 31 238 4.8 16.1 0.00 0.00 0.00 55 1014.6
20240613175108 31 225 4.8 16.1 0.00 0.00 0.00 55 1014.6
20240613175013 31 309 3.2 17.7 0.00 0.00 0.00 55 1014.6
20240613174941 31 276 3.2 22.5 0.00 0.00 0.00 55 1014.6
20240613174911 31 169 4.8 22.5 0.00 0.00 0.00 55 1014.6
20240613174608 31 156 8.0 22.5 0.00 0.00 0.00 55 1014.7
20240613174514 31 153 8.0 22.5 0.00 0.00 0.00 55 1014.7
20240613174423 31 108 8.0 22.5 0.00 0.00 0.00 54 1014.7
20240613174310 31 141 12.9 22.5 0.00 0.00 0.00 54 1014.7
20240613174237 31 148 12.9 22.5 0.00 0.00 0.00 54 1014.7
20240613174103 31 150 8.0 22.5 0.00 0.00 0.00 55 1014.6
20240613174030 31 155 8.0 22.5 0.00 0.00 0.00 55 1014.7
20240613173901 31 159 9.7 22.5 0.00 0.00 0.00 55 1014.5
20240613173809 31 138 11.3 22.5 0.00 0.00 0.00 54 1014.6
20240613173716 31 186 11.3 22.5 0.00 0.00 0.00 54 1014.6
20240613173603 31 192 8.0 17.7 0.00 0.00 0.00 54 1014.6
20240613173511 31 173 6.4 17.7 0.00 0.00 0.00 57 1014.6
20240613173439 31 134 4.8 17.7 0.00 0.00 0.00 57 1014.6
20240613173413 31 136 3.2 16.1 0.00 0.00 0.00 56 1014.6
20240613173104 31 317 1.6 16.1 0.00 0.00 0.00 55 1014.6
20240613173011 31 30 1.6 16.1 0.00 0.00 0.00 55 1014.6
20240613172918 31 74 1.6 16.1 0.00 0.00 0.00 54 1014.7
20240613172825 31 86 4.8 16.1 0.00 0.00 0.00 56 1014.6
20240613172716 31 130 8.0 16.1 0.00 0.00 0.00 55 1014.7
20240613172602 31 174 9.7 16.1 0.00 0.00 0.00 56 1014.7
20240613172510 31 175 8.0 14.5 0.00 0.00 0.00 55 1014.7
20240613172437 31 184 8.0 14.5 0.00 0.00 0.00 57 1014.7
20240613172307 31 155 8.0 17.7 0.00 0.00 0.00 59 1014.6
20240613172212 31 144 6.4 17.7 0.00 0.00 0.00 55 1014.6
20240613172102 31 117 3.2 17.7 0.00 0.00 0.00 56 1014.7
20240613172010 31 111 3.2 17.7 0.00 0.00 0.00 56 1014.6
20240613171937 31 65 4.8 17.7 0.00 0.00 0.00 55 1014.6
20240613171907 31 114 6.4 17.7 0.00 0.00 0.00 56 1014.6
20240613171605 31 157 11.3 17.7 0.00 0.00 0.00 58 1014.7
20240613171512 31 166 11.3 17.7 0.00 0.00 0.00 57 1014.7
20240613171359 31 137 8.0 17.7 0.00 0.00 0.00 56 1014.7
20240613171307 31 145 4.8 17.7 0.00 0.00 0.00 56 1014.7
20240613171235 31 163 3.2 17.7 0.00 0.00 0.00 56 1014.7
20240613171103 31 29 3.2 17.7 0.00 0.00 0.00 56 1014.7
20240613171030 31 105 8.0 17.7 0.00 0.00 0.00 59 1014.7
20240613170901 31 158 6.4 17.7 0.00 0.00 0.00 56 1014.7
20240613170809 31 108 6.4 17.7 0.00 0.00 0.00 58 1014.6
20240613170717 31 113 8.0 17.7 0.00 0.00 0.00 57 1014.7
20240613170625 31 220 12.9 17.7 0.00 0.00 0.00 57 1014.6
20240613170512 31 109 12.9 17.7 0.00 0.00 0.00 57 1014.7
20240613170439 31 121 12.9 17.7 0.00 0.00 0.00 58 1014.6
20240613170333 31 113 11.3 20.9 0.00 0.00 0.00 57 1014.7
20240613170106 31 129 9.7 20.9 0.00 0.00 0.00 56 1014.6
20240613170013 31 82 9.7 20.9 0.00 0.00 0.00 57 1014.7
20240613165901 31 155 8.0 20.9 0.00 0.00 0.00 61 1014.6
20240613165812 31 143 6.4 20.9 0.00 0.00 0.00 58 1014.7
20240613165718 31 158 4.8 20.9 0.00 0.00 0.00 56 1014.6
20240613165605 31 131 6.4 20.9 0.00 0.00 0.00 57 1014.6
20240613165512 31 188 8.0 20.9 0.00 0.00 0.00 59 1014.6
20240613165420 31 146 8.0 20.9 0.00 0.00 0.00 58 1014.5
20240613165307 31 93 3.2 12.9 0.00 0.00 0.00 60 1014.6
20240613165158 30 178 3.2 12.9 0.00 0.00 0.00 59 1014.6
20240613165106 30 169 4.8 12.9 0.00 0.00 0.00 61 1014.6
20240613165035 30 211 4.8 12.9 0.00 0.00 0.00 60 1014.6
20240613164921 30 238 4.8 17.7 0.00 0.00 0.00 58 1014.6
20240613164850 30 116 4.8 17.7 0.00 0.00 0.00 59 1014.6
20240613164608 30 146 1.6 17.7 0.00 0.00 0.00 59 1014.7
20240613164515 30 196 1.6 17.7 0.00 0.00 0.00 58 1014.7
20240613164423 30 82 4.8 17.7 0.00 0.00 0.00 57 1014.7
20240613164330 30 71 6.4 17.7 0.00 0.00 0.00 57 1014.7
20240613164216 30 46 8.0 17.7 0.00 0.00 0.00 58 1014.8
20240613164103 30 59 6.4 17.7 0.00 0.00 0.00 58 1014.8
20240613164014 30 119 6.4 17.7 0.00 0.00 0.00 60 1014.8
20240613163902 30 135 4.8 8.0 0.00 0.00 0.00 59 1014.8
20240613163809 30 119 3.2 8.0 0.00 0.00 0.00 60 1014.8
20240613163717 30 126 3.2 6.4 0.00 0.00 0.00 60 1014.8
20240613163603 30 27 1.6 9.7 0.00 0.00 0.00 58 1014.8
20240613163510 30 47 1.6 9.7 0.00 0.00 0.00 58 1014.8
20240613163421 30 128 1.6 9.7 0.00 0.00 0.00 59 1014.8
20240613163352 30 128 1.6 9.7 0.00 0.00 0.00 58 1014.8
20240613163106 30 165 0.0 11.3 0.00 0.00 0.00 58 1014.8
20240613163012 30 89 1.6 11.3 0.00 0.00 0.00 58 1014.8
20240613162903 30 139 4.8 11.3 0.00 0.00 0.00 58 1014.8
20240613162810 30 107 4.8 11.3 0.00 0.00 0.00 61 1014.8
20240613162739 30 113 1.6 11.3 0.00 0.00 0.00 62 1014.7
20240613162605 30 190 1.6 11.3 0.00 0.00 0.00 58 1014.8
20240613162514 30 150 1.6 11.3 0.00 0.00 0.00 60 1014.7
20240613162400 30 221 4.8 11.3 0.00 0.00 0.00 59 1014.8
20240613162312 30 209 6.4 11.3 0.00 0.00 0.00 58 1014.8
20240613162159 30 184 6.4 11.3 0.00 0.00 0.00 59 1014.8
20240613162106 30 163 3.2 9.7 0.00 0.00 0.00 60 1014.8
20240613162014 30 144 1.6 9.7 0.00 0.00 0.00 60 1014.7
20240613161903 30 145 1.6 14.5 0.00 0.00 0.00 58 1014.8
20240613161837 30 132 1.6 14.5 0.00 0.00 0.00 59 1014.8
20240613161631 30 249 3.2 14.5 0.00 0.00 0.00 60 1014.8
20240613161517 30 296 3.2 14.5 0.00 0.00 0.00 60 1014.8
20240613161405 30 286 3.2 14.5 0.00 0.00 0.00 58 1014.8
20240613161331 30 225 4.8 14.5 0.00 0.00 0.00 60 1014.9
20240613161202 30 225 3.2 16.1 0.00 0.00 0.00 61 1014.8
20240613161130 30 177 3.2 16.1 0.00 0.00 0.00 58 1014.8
20240613161016 30 119 8.0 16.1 0.00 0.00 0.00 58 1014.8
20240613160904 30 200 9.7 16.1 0.00 0.00 0.00 61 1014.8
20240613160812 29 167 8.0 16.1 0.00 0.00 0.00 60 1014.8
20240613160659 29 188 6.4 16.1 0.00 0.00 0.00 60 1014.8
20240613160609 29 207 8.0 16.1 0.00 0.00 0.00 59 1014.8
20240613160537 29 171 11.3 16.1 0.00 0.00 0.00 61 1014.9
20240613160404 29 192 9.7 16.1 0.00 0.00 0.00 60 1014.8
20240613160336 29 157 9.7 16.1 0.00 0.00 0.00 61 1014.8
20240613160108 29 205 6.4 12.9 0.00 0.00 0.00 61 1014.8
20240613155959 29 205 4.8 12.9 0.00 0.00 0.00 61 1014.8
20240613155906 29 244 4.8 12.9 0.00 0.00 0.00 59 1014.8
20240613155813 29 213 6.4 12.9 0.00 0.00 0.00 60 1014.8
20240613155700 29 183 8.0 12.9 0.00 0.00 0.00 59 1014.8
20240613155607 29 202 6.4 16.1 0.00 0.00 0.00 60 1014.8
20240613155514 29 148 6.4 16.1 0.00 0.00 0.00 61 1014.8
20240613155406 29 227 6.4 16.1 0.00 0.00 0.00 60 1014.8
20240613155314 29 138 4.8 16.1 0.00 0.00 0.00 61 1014.8
20240613155220 29 107 4.8 16.1 0.00 0.00 0.00 59 1014.8
20240613155106 30 140 6.4 16.1 0.00 0.00 0.00 61 1014.9
20240613155013 29 120 9.7 16.1 0.00 0.00 0.00 61 1014.9
20240613154921 30 123 9.7 16.1 0.00 0.00 0.00 61 1014.9
20240613154857 30 124 6.4 16.1 0.00 0.00 0.00 59 1014.9
20240613154628 29 95 4.8 11.3 0.00 0.00 0.00 60 1014.8
20240613154534 29 134 4.8 11.3 0.00 0.00 0.00 61 1014.9
20240613154401 29 144 4.8 16.1 0.00 0.00 0.00 59 1014.9
20240613154328 29 151 4.8 16.1 0.00 0.00 0.00 59 1014.9
20240613154159 29 129 3.2 16.1 0.00 0.00 0.00 59 1014.8
20240613154104 29 200 3.2 16.1 0.00 0.00 0.00 60 1014.9
20240613154013 29 134 3.2 16.1 0.00 0.00 0.00 61 1014.9
20240613153900 29 157 6.4 16.1 0.00 0.00 0.00 59 1014.9
20240613153806 29 175 6.4 16.1 0.00 0.00 0.00 59 1015.0
20240613153713 29 184 8.0 16.1 0.00 0.00 0.00 59 1014.9
20240613153606 29 215 9.7 16.1 0.00 0.00 0.00 59 1014.9
20240613153512 30 194 8.0 14.5 0.00 0.00 0.00 58 1014.9
20240613153419 30 217 3.2 12.9 0.00 0.00 0.00 59 1015.0
20240613153350 30 194 1.6 9.7 0.00 0.00 0.00 60 1015.0
20240613153108 29 56 1.6 9.7 0.00 0.00 0.00 61 1014.9
20240613153035 30 32 3.2 9.7 0.00 0.00 0.00 62 1014.9
20240613152900 29 26 3.2 9.7 0.00 0.00 0.00 61 1015.0
20240613152807 29 61 1.6 9.7 0.00 0.00 0.00 61 1015.0
20240613152714 29 51 1.6 9.7 0.00 0.00 0.00 61 1015.0
20240613152602 29 23 3.2 9.7 0.00 0.00 0.00 62 1015.0
20240613152512 29 23 4.8 9.7 0.00 0.00 0.00 62 1015.0
20240613152420 29 35 3.2 9.7 0.00 0.00 0.00 65 1015.1
20240613152307 29 20 3.2 9.7 0.00 0.00 0.00 64 1015.0
20240613152234 29 32 3.2 9.7 0.00 0.00 0.00 63 1015.1
20240613152101 29 355 3.2 9.7 0.00 0.00 0.00 64 1015.1
20240613152009 28 348 3.2 9.7 0.00 0.00 0.00 64 1015.1
20240613151915 28 16 3.2 9.7 0.00 0.00 0.00 64 1015.1
20240613151850 28 24 3.2 9.7 0.00 0.00 0.00 64 1015.1
20240613151604 28 17 4.8 9.7 0.00 0.00 0.00 62 1015.1
20240613151531 28 84 3.2 11.3 0.00 0.00 0.00 62 1015.2
20240613151418 28 43 3.2 11.3 0.00 0.00 0.00 62 1015.2
20240613151326 28 59 3.2 11.3 0.00 0.00 0.00 64 1015.1
20240613151216 28 120 1.6 8.0 0.00 0.00 0.00 62 1015.1
20240613151104 28 32 1.6 8.0 0.00 0.00 0.00 62 1015.2
20240613151012 28 135 1.6 8.0 0.00 0.00 0.00 63 1015.1
20240613150859 28 281 4.8 8.0 0.00 0.00 0.00 63 1015.1
20240613150807 28 198 4.8 8.0 0.00 0.00 0.00 63 1015.2
20240613150659 28 207 1.6 6.4 0.00 0.00 0.00 63 1015.2
20240613150605 28 160 0.0 4.8 0.00 0.00 0.00 65 1015.2
20240613150511 28 298 1.6 8.0 0.00 0.00 0.00 63 1015.2
20240613150438 28 309 1.6 9.7 0.00 0.00 0.00 63 1015.2
20240613150409 28 306 1.6 9.7 0.00 0.00 0.00 64 1015.1
20240613150106 28 275 0.0 9.7 0.00 0.00 0.00 63 1015.2
20240613150013 28 165 1.6 9.7 0.00 0.00 0.00 63 1015.2
20240613145918 28 92 3.2 9.7 0.00 0.00 0.00 65 1015.2
20240613145825 28 111 4.8 9.7 0.00 0.00 0.00 64 1015.2
20240613145732 28 122 4.8 9.7 0.00 0.00 0.00 64 1015.2
20240613145638 28 192 6.4 11.3 0.00 0.00 0.00 65 1015.1
20240613145504 28 177 6.4 11.3 0.00 0.00 0.00 65 1015.1
20240613145431 28 150 6.4 11.3 0.00 0.00 0.00 66 1015.1
20240613145305 28 172 3.2 11.3 0.00 0.00 0.00 65 1015.1
20240613145209 28 111 3.2 11.3 0.00 0.00 0.00 64 1015.2
20240613145116 28 149 4.8 11.3 0.00 0.00 0.00 63 1015.1
20240613145005 28 136 4.8 11.3 0.00 0.00 0.00 65 1015.2
20240613144913 28 130 1.6 12.9 0.00 0.00 0.00 63 1015.2
20240613144846 28 192 1.6 14.5 0.00 0.00 0.00 65 1015.2
20240613144600 28 191 3.2 14.5 0.00 0.00 0.00 64 1015.2
20240613144506 28 167 3.2 14.5 0.00 0.00 0.00 64 1015.1
20240613144414 28 120 4.8 14.5 0.00 0.00 0.00 64 1015.2
20240613144306 28 135 4.8 14.5 0.00 0.00 0.00 63 1015.2
20240613144213 28 106 6.4 14.5 0.00 0.00 0.00 64 1015.2
20240613144100 28 121 8.0 14.5 0.00 0.00 0.00 64 1015.2
20240613144007 28 125 6.4 14.5 0.00 0.00 0.00 64 1015.1
20240613143915 28 128 4.8 11.3 0.00 0.00 0.00 65 1015.2
20240613143801 28 114 4.8 11.3 0.00 0.00 0.00 66 1015.2
20240613143711 28 93 3.2 11.3 0.00 0.00 0.00 65 1015.2
20240613143618 27 146 3.2 11.3 0.00 0.00 0.00 65 1015.2
20240613143506 27 125 4.8 11.3 0.00 0.00 0.00 65 1015.2
20240613143412 27 76 6.4 11.3 0.00 0.00 0.00 66 1015.2
20240613143347 27 32 6.4 12.9 0.00 0.00 0.00 66 1015.2
20240613143100 27 57 4.8 12.9 0.00 0.00 0.00 66 1015.2
20240613143007 27 24 3.2 12.9 0.00 0.00 0.00 66 1015.2
20240613142914 27 49 1.6 12.9 0.00 0.00 0.00 66 1015.2
20240613142803 27 90 1.6 12.9 0.00 0.00 0.00 66 1015.1
20240613142711 27 159 1.6 12.9 0.00 0.00 0.00 66 1015.2
20240613142600 27 151 4.8 12.9 0.00 0.00 0.00 64 1015.1
20240613142508 27 150 6.4 12.9 0.00 0.00 0.00 65 1015.1
20240613142415 27 121 6.4 12.9 0.00 0.00 0.00 66 1015.2
20240613142306 27 162 4.8 11.3 0.00 0.00 0.00 65 1015.1
20240613142210 27 142 4.8 11.3 0.00 0.00 0.00 66 1015.2
20240613142101 27 157 6.4 11.3 0.00 0.00 0.00 66 1015.2
20240613142009 27 149 4.8 11.3 0.00 0.00 0.00 65 1015.1
20240613141916 27 115 4.8 9.7 0.00 0.00 0.00 65 1015.2
20240613141847 27 140 4.8 9.7 0.00 0.00 0.00 65 1015.2
20240613141605 27 115 3.2 11.3 0.00 0.00 0.00 65 1015.2
20240613141511 27 82 3.2 14.5 0.00 0.00 0.00 66 1015.2
20240613141358 27 63 3.2 14.5 0.00 0.00 0.00 65 1015.2
20240613141305 27 135 3.2 14.5 0.00 0.00 0.00 66 1015.2
20240613141233 27 117 4.8 14.5 0.00 0.00 0.00 66 1015.2
20240613141100 27 49 4.8 14.5 0.00 0.00 0.00 67 1015.2
20240613141011 27 111 6.4 14.5 0.00 0.00 0.00 67 1015.2
20240613140900 27 130 6.4 14.5 0.00 0.00 0.00 67 1015.1
20240613140808 27 121 6.4 14.5 0.00 0.00 0.00 67 1015.1
20240613140715 27 114 6.4 14.5 0.00 0.00 0.00 67 1015.1
20240613140601 27 160 6.4 12.9 0.00 0.00 0.00 67 1015.1
20240613140509 27 172 4.8 12.9 0.00 0.00 0.00 67 1015.0
20240613140421 27 126 4.8 12.9 0.00 0.00 0.00 67 1015.1
20240613140351 27 138 4.8 12.9 0.00 0.00 0.00 67 1015.1
20240613140104 27 98 6.4 12.9 0.00 0.00 0.00 67 1015.1
20240613140030 26 86 6.4 12.9 0.00 0.00 0.00 67 1015.1
20240613135900 26 82 6.4 11.3 0.00 0.00 0.00 67 1015.1
20240613135807 26 101 4.8 11.3 0.00 0.00 0.00 68 1015.1
20240613135716 26 111 4.8 11.3 0.00 0.00 0.00 68 1015.0
20240613135622 26 73 4.8 11.3 0.00 0.00 0.00 68 1015.1
20240613135507 26 49 4.8 11.3 0.00 0.00 0.00 68 1015.1
20240613135413 26 106 4.8 11.3 0.00 0.00 0.00 68 1015.1
20240613135306 26 113 6.4 11.3 0.00 0.00 0.00 68 1015.1
20240613135210 26 76 4.8 11.3 0.00 0.00 0.00 68 1015.1
20240613135059 26 55 3.2 11.3 0.00 0.00 0.00 68 1015.0
20240613135006 26 132 3.2 11.3 0.00 0.00 0.00 69 1015.1
20240613134914 26 117 3.2 11.3 0.00 0.00 0.00 68 1015.1
20240613134848 26 99 3.2 11.3 0.00 0.00 0.00 68 1015.1
20240613134600 26 75 4.8 11.3 0.00 0.00 0.00 68 1015.2
20240613134508 26 122 4.8 11.3 0.00 0.00 0.00 69 1015.1
20240613134436 26 94 4.8 11.3 0.00 0.00 0.00 69 1015.1
20240613134302 26 86 4.8 11.3 0.00 0.00 0.00 69 1015.2
20240613134210 26 81 3.2 8.0 0.00 0.00 0.00 68 1015.2
20240613134102 26 214 3.2 8.0 0.00 0.00 0.00 69 1015.2
20240613134009 26 105 4.8 8.0 0.00 0.00 0.00 69 1015.2
20240613133916 26 113 4.8 9.7 0.00 0.00 0.00 69 1015.1
20240613133803 26 140 3.2 9.7 0.00 0.00 0.00 69 1015.1
20240613133711 26 121 3.2 9.7 0.00 0.00 0.00 69 1015.1
20240613133603 26 47 4.8 9.7 0.00 0.00 0.00 70 1015.2
20240613133530 26 108 4.8 9.7 0.00 0.00 0.00 71 1015.1
20240613133414 26 126 4.8 9.7 0.00 0.00 0.00 70 1015.1
20240613133345 26 144 4.8 9.7 0.00 0.00 0.00 70 1015.1
20240613133118 26 71 6.4 9.7 0.00 0.00 0.00 70 1015.1
20240613133030 26 140 4.8 9.7 0.00 0.00 0.00 71 1015.1
20240613132937 26 113 4.8 8.0 0.00 0.00 0.00 70 1015.1
20240613132803 25 90 4.8 8.0 0.00 0.00 0.00 71 1015.0
20240613132710 25 117 3.2 9.7 0.00 0.00 0.00 71 1015.1
20240613132618 25 92 4.8 9.7 0.00 0.00 0.00 70 1015.1
20240613132505 25 59 4.8 9.7 0.00 0.00 0.00 70 1015.1
20240613132417 25 92 4.8 9.7 0.00 0.00 0.00 70 1015.1
20240613132306 25 80 4.8 9.7 0.00 0.00 0.00 72 1015.1
20240613132211 25 91 4.8 9.7 0.00 0.00 0.00 71 1015.0
20240613132117 25 115 4.8 9.7 0.00 0.00 0.00 72 1015.0
20240613132005 25 111 3.2 6.4 0.00 0.00 0.00 72 1015.1
20240613131914 25 140 3.2 4.8 0.00 0.00 0.00 72 1015.1
20240613131849 25 139 3.2 6.4 0.00 0.00 0.00 72 1015.1
20240613131602 25 167 1.6 6.4 0.00 0.00 0.00 74 1015.0
20240613131510 25 129 1.6 6.4 0.00 0.00 0.00 73 1015.0
20240613131418 25 129 1.6 6.4 0.00 0.00 0.00 73 1015.0
20240613131330 25 131 1.6 6.4 0.00 0.00 0.00 74 1014.9
20240613131216 25 90 0.0 6.4 0.00 0.00 0.00 73 1015.0
20240613131124 25 119 1.6 6.4 0.00 0.00 0.00 73 1015.0
20240613131012 25 119 3.2 6.4 0.00 0.00 0.00 73 1015.0
20240613130900 25 121 3.2 6.4 0.00 0.00 0.00 75 1014.9
20240613130807 25 106 3.2 6.4 0.00 0.00 0.00 74 1015.0
20240613130718 25 123 3.2 6.4 0.00 0.00 0.00 73 1015.0
20240613130624 25 139 1.6 6.4 0.00 0.00 0.00 76 1015.0
20240613130511 24 146 1.6 4.8 0.00 0.00 0.00 75 1014.9
20240613130439 24 81 1.6 4.8 0.00 0.00 0.00 75 1014.9
20240613130410 24 118 1.6 4.8 0.00 0.00 0.00 76 1015.0